Laatste waarneming: 13:42
Temperatuur:18,2°C
Dauwpunt:13,6°C
Rel. vocht:74,3%
Natte-bol:15,9°C
Wind (gem. 10 min.):9,4 m/s
Wind (max. 10 min.):11.176 m/s
Windrichting:259°
Neerslagsom:0,0 mm
Neerslagintensiteit:0,0 mm/u
Luchtdruk:1019,3 hPa
Straling:606,0 W/m2
 
Maximumtemp.:18,4°C (00:01)
Minimumtemp.:15,8°C (06:51)
Hoogste windstoot:12,1 m/s (11:20)


Bekijk de verwachting.

Bekijk de grafieken.
Bekijk het weekoverzicht.
Bekijk het maandoverzicht.
Bekijk het jaaroverzicht.
Dagtabel
Tijd Temp. Dauwp. Natte-bol Rel. Hum. Windsnelh. Windricht. Windstoot Neerslag Straling Luchtdruk
 
13:42 18,2 13,6 15,9 74,3 9,4 259 - 0,0 606 1.019,3
13:41 18,2 13,8 16,1 75,0 9,4 268 - 0,0 605 1.019,3
13:40 18,2 14,0 16,2 75,9 9,2 276 - 0,0 600 1.019,4
13:39 18,1 13,7 16,0 74,8 8,6 267 - 0,0 599 1.019,4
13:38 18,1 13,4 15,8 74,0 8,5 265 - 0,0 598 1.019,3
13:37 18,1 13,4 15,8 74,0 9,0 256 - 0,0 594 1.019,3
13:36 18,1 13,6 15,9 74,7 9,3 260 - 0,0 594 1.019,3
13:35 18,1 13,6 15,9 75,0 9,1 259 - 0,0 595 1.019,3
13:34 18,0 13,4 15,7 74,2 9,0 280 - 0,0 600 1.019,3
13:33 17,9 13,5 15,8 75,0 9,0 271 - 0,0 611 1.019,3
13:32 17,9 13,5 15,8 75,4 9,1 253 - 0,0 628 1.019,3
13:31 17,9 13,7 15,9 76,0 8,7 278 - 0,0 230 1.019,2
13:30 17,9 13,7 15,9 76,0 8,6 247 - 0,0 185 1.019,2
13:29 17,9 13,7 15,9 76,0 8,6 272 - 0,0 185 1.019,2
13:28 17,9 13,4 15,7 75,1 8,8 281 - 0,0 185 1.019,2
13:27 17,8 13,4 15,7 75,0 9,1 296 - 0,0 185 1.019,2
13:26 17,8 13,4 15,7 75,0 9,6 283 - 0,0 173 1.019,1
13:25 17,9 13,5 15,7 75,0 10,2 271 - 0,0 164 1.019,2
13:24 17,9 13,6 15,9 75,7 9,7 285 - 0,0 207 1.019,2
13:23 17,9 13,3 15,7 74,3 9,1 289 - 0,0 338 1.019,2
13:22 17,9 13,5 15,8 75,0 9,1 276 - 0,0 532 1.019,1
13:21 18,0 13,5 15,8 75,0 9,6 274 - 0,0 726 1.019,1
13:20 17,9 13,4 15,7 74,6 10,0 286 - 0,0 459 1.019,1
13:19 18,0 13,4 15,7 74,0 10,3 290 - 0,0 377 1.019,1
13:18 18,1 13,4 15,8 74,0 10,5 293 - 0,0 239 1.019,1
13:17 18,2 13,4 15,8 73,1 10,4 284 - 0,0 466 1.019,1
13:16 18,3 13,4 15,8 72,8 10,0 278 - 0,0 807 1.019,1
13:15 18,3 13,2 15,7 72,0 9,7 249 - 0,0 780 1.019,1
13:14 18,3 13,1 15,6 71,6 9,5 265 - 0,0 719 1.019,1
13:13 18,3 13,0 15,5 71,0 9,3 271 - 0,0 620 1.019,1
13:12 18,3 13,0 15,5 71,0 9,2 260 - 0,0 615 1.019,1
13:11 18,2 12,9 15,5 71,0 9,1 248 - 0,0 611 1.019,1
13:10 18,2 12,8 15,4 70,2 9,0 272 - 0,0 603 1.019,1
13:09 18,2 12,9 15,5 70,7 9,1 247 - 0,0 600 1.019,1
13:08 18,2 12,7 15,3 70,0 9,4 263 - 0,0 595 1.019,2
13:07 18,2 12,7 15,4 70,0 9,6 269 - 0,0 596 1.019,1
13:06 18,2 12,6 15,2 69,2 8,8 277 - 0,0 596 1.019,1
13:05 18,2 12,8 15,4 70,1 8,2 228 - 0,0 593 1.019,1
13:04 18,3 13,0 15,5 70,8 8,4 282 - 0,0 592 1.019,1
13:03 18,3 12,8 15,4 70,0 9,0 265 - 0,0 592 1.019,1
13:02 18,3 12,8 15,4 70,0 8,4 236 - 0,0 589 1.019,1
13:01 18,3 13,0 15,6 70,7 8,2 195 - 0,0 589 1.019,1
13:00 18,3 12,9 15,4 70,2 7,5 233 - 0,0 591 1.019,2
 
12:59 18,2 12,6 15,2 69,1 7,3 251 - 0,0 591 1.019,2
12:58 18,2 12,5 15,2 68,8 7,7 288 - 0,0 589 1.019,1
12:57 18,2 12,4 15,1 68,4 8,3 251 - 0,0 583 1.019,1
12:56 18,2 12,4 15,1 68,5 9,1 240 - 0,0 585 1.019,1
12:55 18,2 12,6 15,3 69,4 8,9 237 - 0,0 585 1.019,1
12:54 18,2 12,6 15,3 69,4 8,5 240 - 0,0 585 1.019,2
12:53 18,2 12,7 15,3 70,0 8,2 242 - 0,0 585 1.019,2
12:52 18,2 12,7 15,3 70,0 8,1 262 - 0,0 585 1.019,2
12:51 18,2 12,7 15,3 70,0 7,8 253 - 0,0 584 1.019,2
12:50 18,1 12,7 15,3 70,0 7,6 232 - 0,0 577 1.019,2
12:49 18,1 12,5 15,1 69,3 7,7 211 - 0,0 569 1.019,2
12:48 18,1 12,4 15,1 69,0 7,6 211 - 0,0 585 1.019,2
12:47 18,1 12,6 15,2 70,0 7,2 203 - 0,0 591 1.019,2
12:46 18,1 12,6 15,2 70,0 7,5 246 - 0,0 586 1.019,2
12:45 18,1 12,6 15,2 70,0 8,3 245 - 0,0 579 1.019,1
12:44 18,1 12,7 15,3 70,6 8,5 244 - 0,0 583 1.019,1
12:43 18,1 12,7 15,3 70,3 8,2 232 - 0,0 584 1.019,2
12:42 18,0 12,4 15,1 69,2 7,8 256 - 0,0 582 1.019,2
12:41 18,0 12,1 14,9 68,2 7,8 225 - 0,0 581 1.019,1
12:40 18,0 12,4 15,1 69,3 8,6 249 - 0,0 580 1.019,1
12:39 18,0 12,6 15,2 70,0 9,1 236 - 0,0 578 1.019,1
12:38 18,0 12,4 15,1 69,4 9,0 253 - 0,0 577 1.019,1
12:37 18,0 12,5 15,1 69,8 8,9 264 - 0,0 578 1.019,1
12:36 18,0 12,3 15,0 69,2 8,7 256 - 0,0 577 1.019,1
12:35 18,0 12,4 15,1 69,8 8,7 271 - 0,0 575 1.019,1
12:34 17,9 12,4 15,0 69,6 8,9 240 - 0,0 574 1.019,0
12:33 17,9 12,7 15,2 71,0 8,9 274 - 0,0 573 1.019,0
12:32 17,9 12,6 15,2 71,0 8,7 244 - 0,0 573 1.019,0
12:31 17,9 12,6 15,2 71,0 8,8 246 - 0,0 573 1.019,0
12:30 17,9 13,0 15,4 72,8 8,8 248 - 0,0 571 1.019,1
12:29 17,9 13,1 15,5 73,0 8,3 235 - 0,0 570 1.019,1
12:28 17,9 13,0 15,4 72,7 7,7 274 - 0,0 569 1.019,1
12:27 17,9 12,8 15,3 72,0 7,7 219 - 0,0 566 1.019,1
12:26 17,9 13,3 15,6 74,0 8,5 211 - 0,0 563 1.019,1
12:25 17,9 13,3 15,7 74,2 8,7 239 - 0,0 562 1.019,0
12:24 17,9 13,3 15,6 74,0 8,6 235 - 0,0 561 1.019,1
12:23 17,9 13,1 15,5 73,4 8,7 271 - 0,0 562 1.019,0
12:22 17,9 13,0 15,5 73,0 9,0 260 - 0,0 562 1.019,0
12:21 17,9 13,3 15,6 74,0 9,1 259 - 0,0 561 1.019,0
12:20 17,9 13,5 15,8 75,0 9,0 245 - 0,0 555 1.019,0
12:19 17,9 13,3 15,7 74,2 9,4 264 - 0,0 555 1.019,0
12:18 17,9 13,3 15,6 74,0 9,9 253 - 0,0 555 1.019,0
12:17 17,9 13,2 15,6 73,8 10,0 265 - 0,0 555 1.019,0
12:16 17,8 13,0 15,4 73,0 9,4 256 - 0,0 555 1.019,0
12:15 17,8 13,0 15,4 73,0 9,3 216 - 0,0 555 1.018,9
12:14 17,8 13,1 15,5 73,7 9,3 268 - 0,0 552 1.018,9
12:13 17,9 13,1 15,5 73,2 9,7 249 - 0,0 551 1.018,9
12:12 17,8 13,2 15,5 73,9 8,6 251 - 0,0 546 1.018,9
12:11 17,8 13,0 15,4 73,0 7,4 304 - 0,0 547 1.018,9
12:10 17,8 13,1 15,5 73,4 6,9 217 - 0,0 547 1.019,0
12:09 17,9 13,2 15,6 74,0 8,5 215 - 0,0 543 1.019,0
12:08 17,8 13,1 15,4 73,3 8,1 201 - 0,0 543 1.018,9
12:07 17,8 13,2 15,5 73,7 7,8 247 11,6 0,0 543 1.018,9
12:06 17,8 13,0 15,4 72,9 9,0 276 - 0,0 548 1.018,9
12:05 17,8 12,8 15,3 72,0 9,2 259 - 0,0 550 1.018,9
12:04 17,8 12,7 15,2 72,0 9,1 298 - 0,0 560 1.018,9
12:03 17,8 12,9 15,3 72,6 9,3 239 - 0,0 566 1.018,9
12:02 17,8 13,1 15,5 73,7 9,6 260 - 0,0 562 1.018,9
12:01 17,8 13,2 15,6 74,0 8,5 249 - 0,0 558 1.018,9
12:00 17,8 13,2 15,5 73,9 7,8 229 - 0,0 561 1.018,9
 
11:59 17,9 13,1 15,5 73,3 7,8 227 - 0,0 560 1.018,9
11:58 17,9 13,1 15,5 73,6 7,9 226 - 0,0 561 1.018,9
11:57 17,8 13,0 15,4 73,0 8,2 244 - 0,0 563 1.018,9
11:56 17,8 13,0 15,4 73,0 8,3 249 - 0,0 568 1.018,9
11:55 17,9 13,0 15,4 73,0 8,1 251 - 0,0 567 1.018,8
11:54 17,9 13,1 15,5 73,0 8,0 244 - 0,0 565 1.018,9
11:53 17,9 12,9 15,4 72,4 7,7 267 - 0,0 558 1.018,9
11:52 17,8 12,7 15,2 71,5 7,7 215 - 0,0 553 1.019,0
11:51 17,8 12,7 15,2 71,4 7,9 245 - 0,0 548 1.018,9
11:50 17,8 12,6 15,1 71,0 7,9 240 - 0,0 543 1.018,9
11:49 17,9 12,8 15,3 71,9 8,1 209 - 0,0 541 1.018,9
11:48 17,8 12,7 15,2 71,4 8,3 215 - 0,0 539 1.018,9
11:47 17,8 13,0 15,4 73,0 8,2 238 - 0,0 538 1.019,0
11:46 17,8 13,0 15,4 73,0 8,5 259 - 0,0 535 1.018,9
11:45 17,8 13,1 15,5 73,7 8,9 266 - 0,0 531 1.018,9
11:44 17,8 13,2 15,5 74,0 9,0 264 - 0,0 533 1.018,9
11:43 17,7 12,9 15,3 73,0 8,9 276 - 0,0 531 1.018,9
11:42 17,7 12,7 15,2 72,4 8,9 252 - 0,0 530 1.018,9
11:41 17,7 13,1 15,5 74,4 8,9 272 - 0,0 531 1.018,9
11:40 17,7 13,4 15,7 75,5 7,8 276 - 0,0 528 1.018,9
11:39 17,7 13,5 15,7 76,0 7,4 209 - 0,0 524 1.018,9
11:38 17,7 13,5 15,7 76,0 7,4 261 - 0,0 523 1.018,9
11:37 17,7 13,3 15,6 75,1 7,9 259 - 0,0 522 1.018,9
11:36 17,7 13,3 15,6 75,0 7,7 246 - 0,0 520 1.018,9
11:35 17,7 13,3 15,5 75,0 7,8 269 - 0,0 513 1.018,9
11:34 17,7 13,1 15,5 74,5 8,2 234 - 0,0 514 1.018,9
11:33 17,7 13,2 15,5 74,7 8,5 228 - 0,0 516 1.018,9
11:32 17,7 13,1 15,4 74,2 7,9 253 - 0,0 511 1.018,9
11:31 17,7 13,0 15,4 73,9 7,5 238 - 0,0 509 1.018,9
11:30 17,7 12,8 15,3 73,0 7,2 264 - 0,0 505 1.018,8
11:29 17,7 12,9 15,3 73,4 6,9 209 - 0,0 499 1.018,9
11:28 17,7 12,9 15,3 73,5 7,7 281 - 0,0 497 1.018,9
11:27 17,7 13,0 15,4 73,7 9,0 253 - 0,0 497 1.018,8
11:26 17,7 13,2 15,5 74,9 9,4 269 - 0,0 502 1.018,8
11:25 17,7 13,4 15,7 75,8 9,3 257 - 0,0 512 1.018,8
11:24 17,7 13,3 15,6 75,3 9,5 239 - 0,0 512 1.018,8
11:23 17,7 13,4 15,6 75,6 9,5 254 - 0,0 512 1.018,8
11:22 17,7 13,2 15,5 75,0 10,0 272 - 0,0 496 1.018,8
11:21 17,7 13,2 15,5 75,0 10,5 274 - 0,0 491 1.018,8
11:20 17,7 13,2 15,5 75,0 10,5 267 - 0,0 487 1.018,8
11:19 17,7 13,3 15,6 75,2 10,2 257 - 0,0 486 1.018,8
11:18 17,7 13,5 15,7 76,0 9,7 263 - 0,0 488 1.018,8
11:17 17,7 13,4 15,7 76,0 9,4 259 - 0,0 483 1.018,8
11:16 17,7 13,4 15,7 76,0 9,4 253 - 0,0 482 1.018,8
11:15 17,7 13,4 15,7 76,0 9,6 255 - 0,0 478 1.018,7
11:14 17,7 13,4 15,7 76,0 9,5 265 - 0,0 365 1.018,6
11:13 17,6 13,4 15,6 76,0 9,0 274 - 0,0 167 1.018,7
11:12 17,6 13,3 15,6 75,7 8,8 255 - 0,0 167 1.018,7
11:11 17,6 13,3 15,5 75,5 9,0 253 - 0,0 93 1.018,6
11:10 17,6 13,4 15,6 76,0 9,4 226 - 0,0 48 1.018,6
11:09 17,6 13,4 15,6 76,0 9,5 259 - 0,0 47 1.018,6
11:08 17,6 13,4 15,6 76,0 9,7 259 - 0,0 47 1.018,6
11:07 17,6 13,4 15,6 76,2 9,4 265 - 0,0 50 1.018,7
11:06 17,6 13,5 15,7 76,7 9,1 248 - 0,0 53 1.018,6
11:05 17,6 13,3 15,6 76,0 9,6 284 - 0,0 57 1.018,6
11:04 17,6 13,5 15,7 76,7 10,5 270 - 0,0 59 1.018,6
11:03 17,6 13,6 15,8 77,0 10,6 262 - 0,0 68 1.018,6
11:02 17,6 13,8 15,9 78,0 9,9 258 - 0,0 71 1.018,6
11:01 17,6 13,8 15,9 78,0 8,7 272 - 0,0 74 1.018,6
11:00 17,6 13,7 15,8 77,7 7,6 246 - 0,0 80 1.018,7
 
10:59 17,6 13,7 15,8 77,5 7,6 218 - 0,0 84 1.018,7
10:58 17,6 13,8 15,9 78,0 8,0 262 - 0,0 81 1.018,7
10:57 17,6 13,8 15,9 78,0 8,5 238 - 0,0 81 1.018,7
10:56 17,6 14,0 16,0 79,0 8,4 249 - 0,0 82 1.018,6
10:55 17,6 14,0 16,0 79,0 7,9 259 - 0,0 84 1.018,5
10:54 17,6 14,0 16,0 79,0 7,3 228 - 0,0 89 1.018,6
10:53 17,6 14,0 16,0 79,0 6,8 253 - 0,0 96 1.018,6
10:52 17,6 13,8 15,9 78,3 6,9 276 - 0,0 87 1.018,6
10:51 17,6 13,7 15,9 78,0 6,1 245 - 0,0 85 1.018,6
10:50 17,6 13,8 15,9 78,1 6,5 192 - 0,0 101 1.018,6
10:49 17,6 14,0 16,1 79,3 6,4 253 - 0,0 119 1.018,6
10:48 17,7 14,2 16,2 80,0 6,5 239 - 0,0 140 1.018,6
10:47 17,7 14,2 16,2 80,0 6,0 249 - 0,0 178 1.018,6
10:46 17,7 14,2 16,2 80,0 5,9 236 - 0,0 204 1.018,6
10:45 17,6 14,0 16,1 79,2 6,0 220 - 0,0 228 1.018,5
10:44 17,6 14,0 16,1 79,2 5,6 232 - 0,0 236 1.018,5
10:43 17,6 14,1 16,1 79,7 6,0 280 - 0,0 232 1.018,6
10:42 17,6 14,1 16,1 79,5 6,4 257 - 0,0 217 1.018,6
10:41 17,6 14,0 16,1 79,4 6,9 253 - 0,0 195 1.018,5
10:40 17,6 14,1 16,1 79,8 7,1 259 - 0,0 155 1.018,5
10:39 17,6 14,0 16,0 79,2 6,6 258 - 0,0 133 1.018,5
10:38 17,6 13,9 16,0 79,0 6,1 286 - 0,0 128 1.018,5
10:37 17,5 13,8 15,9 78,7 6,5 227 - 0,0 117 1.018,5
10:36 17,5 13,7 15,8 78,0 6,8 247 - 0,0 107 1.018,5
10:35 17,5 13,8 15,9 78,7 7,1 185 - 0,0 126 1.018,4
10:34 17,5 13,9 15,9 79,0 7,4 222 - 0,0 151 1.018,4
10:33 17,5 13,9 16,0 79,1 7,9 250 - 0,0 180 1.018,4
10:32 17,5 14,1 16,1 80,0 7,8 239 - 0,0 189 1.018,4
10:31 17,5 14,1 16,1 80,0 7,0 258 - 0,0 172 1.018,4
10:30 17,5 14,1 16,1 80,0 6,6 209 - 0,0 144 1.018,4
10:29 17,5 14,1 16,1 80,0 6,7 249 - 0,0 116 1.018,3
10:28 17,5 13,9 16,0 79,3 6,4 247 - 0,0 102 1.018,3
10:27 17,5 13,8 15,9 79,0 6,5 188 - 0,0 92 1.018,3
10:26 17,5 13,8 15,9 79,0 6,4 244 - 0,0 72 1.018,3
10:25 17,4 13,8 15,9 79,0 6,9 262 - 0,0 62 1.018,3
10:24 17,4 13,8 15,9 79,0 6,9 253 - 0,0 57 1.018,3
10:23 17,5 13,8 15,9 79,0 6,7 235 - 0,0 49 1.018,3
10:22 17,5 14,0 16,0 79,8 6,8 284 - 0,0 48 1.018,2
10:21 17,5 13,8 15,9 79,1 7,3 262 - 0,0 47 1.018,2
10:20 17,4 13,8 15,9 79,0 7,6 270 - 0,0 46 1.018,2
10:19 17,4 13,8 15,9 79,0 7,5 257 - 0,0 46 1.018,2
10:18 17,5 13,8 15,9 79,0 7,4 232 - 0,0 46 1.018,1
10:17 17,5 13,8 15,9 79,0 7,1 259 - 0,0 47 1.018,1
10:16 17,4 13,8 15,9 79,0 7,0 257 - 0,0 47 1.018,1
10:15 17,4 13,8 15,9 78,9 6,9 275 - 0,0 47 1.018,1
10:14 17,4 13,6 15,7 78,3 7,2 277 - 0,0 46 1.018,1
10:13 17,4 13,8 15,9 79,0 7,7 245 - 0,0 46 1.018,1
10:12 17,4 13,8 15,8 79,0 7,8 260 - 0,0 47 1.018,0
10:11 17,4 13,8 15,9 79,0 7,5 269 - 0,0 47 1.018,0
10:10 17,4 13,8 15,8 78,9 7,5 288 - 0,0 47 1.018,0
10:09 17,4 13,6 15,7 78,2 7,1 249 - 0,0 47 1.018,0
10:08 17,4 13,9 16,0 79,8 7,4 219 - 0,0 48 1.018,0
10:07 17,4 13,8 15,8 79,0 7,1 263 - 0,0 51 1.018,0
10:06 17,4 13,8 15,8 79,0 7,0 263 - 0,0 53 1.018,0
10:05 17,4 13,8 15,8 79,0 7,0 218 - 0,0 57 1.018,0
10:04 17,4 13,8 15,8 79,0 7,1 244 - 0,0 64 1.018,0
10:03 17,4 13,8 15,9 79,2 7,1 240 - 0,0 72 1.017,9
10:02 17,4 14,0 16,0 80,0 6,8 249 - 0,0 77 1.017,9
10:01 17,5 14,0 16,0 80,0 6,8 219 - 0,0 86 1.017,9
10:00 17,5 14,0 16,1 80,0 7,0 246 - 0,0 98 1.017,9
 
09:59 17,5 14,0 16,0 80,0 7,1 245 - 0,0 116 1.017,9
09:58 17,5 14,0 16,0 80,0 7,0 229 - 0,0 129 1.017,9
09:57 17,4 13,8 15,9 79,1 7,0 236 - 0,0 141 1.017,9
09:56 17,4 13,9 15,9 79,3 7,1 259 - 0,0 151 1.017,9
09:55 17,5 14,0 16,0 80,0 7,0 226 - 0,0 155 1.017,9
09:54 17,4 13,9 15,9 79,4 6,9 258 - 0,0 158 1.017,9
09:53 17,4 13,9 16,0 79,8 7,2 276 - 0,0 163 1.017,9
09:52 17,4 13,8 15,9 79,2 7,1 257 - 0,0 167 1.017,8
09:51 17,4 14,0 16,0 80,0 6,7 271 - 0,0 173 1.017,8
09:50 17,4 14,0 16,0 80,0 6,8 217 - 0,0 177 1.017,8
09:49 17,4 14,0 16,0 80,0 7,0 259 - 0,0 179 1.017,8
09:48 17,4 14,0 16,0 80,0 7,2 259 - 0,0 181 1.017,8
09:47 17,4 14,0 16,0 80,0 7,0 255 - 0,0 183 1.017,8
09:46 17,4 13,9 16,0 80,0 6,9 247 - 0,0 182 1.017,8
09:45 17,4 13,9 15,9 80,0 7,0 239 - 0,0 181 1.017,8
09:44 17,4 13,9 15,9 80,0 6,8 247 - 0,0 179 1.017,8
09:43 17,4 14,0 16,0 80,5 6,5 228 - 0,0 175 1.017,7
09:42 17,4 14,2 16,1 81,0 6,3 252 - 0,0 170 1.017,7
09:41 17,4 14,1 16,1 81,0 6,0 215 - 0,0 164 1.017,7
09:40 17,4 14,0 16,0 80,2 5,9 255 - 0,0 159 1.017,7
09:39 17,4 14,2 16,1 81,0 6,3 264 - 0,0 157 1.017,8
09:38 17,4 14,2 16,1 81,0 6,5 235 - 0,0 157 1.017,8
09:37 17,5 14,2 16,2 81,0 6,5 236 - 0,0 156 1.017,7
09:36 17,5 14,2 16,2 81,0 6,5 246 - 0,0 153 1.017,7
09:35 17,5 14,2 16,1 81,0 6,3 251 - 0,0 149 1.017,7
09:34 17,4 14,0 16,0 80,2 6,4 217 - 0,0 148 1.017,6
09:33 17,4 14,1 16,1 80,8 6,4 230 - 0,0 149 1.017,6
09:32 17,4 14,0 16,0 80,4 6,3 259 - 0,0 151 1.017,6
09:31 17,4 14,0 16,0 80,5 6,1 205 - 0,0 153 1.017,6
09:30 17,4 13,9 16,0 80,0 6,3 192 - 0,0 155 1.017,5
09:29 17,4 14,1 16,1 80,9 6,4 254 - 0,0 155 1.017,5
09:28 17,4 14,3 16,2 81,9 7,0 251 - 0,0 156 1.017,5
09:27 17,4 14,1 16,1 80,8 6,7 252 - 0,0 155 1.017,5
09:26 17,4 13,9 15,9 80,0 6,7 261 - 0,0 155 1.017,5
09:25 17,4 14,1 16,0 80,6 6,7 244 - 0,0 155 1.017,5
09:24 17,4 14,2 16,1 81,0 6,5 265 - 0,0 155 1.017,5
09:23 17,4 14,0 16,0 80,2 6,5 242 - 0,0 155 1.017,5
09:22 17,4 14,0 16,0 80,0 6,7 258 - 0,0 156 1.017,5
09:21 17,4 14,0 16,0 80,0 6,9 244 - 0,0 157 1.017,5
09:20 17,4 13,9 15,9 80,0 7,1 236 - 0,0 156 1.017,5
09:19 17,4 14,1 16,1 80,6 7,3 233 - 0,0 156 1.017,4
09:18 17,4 14,2 16,1 81,0 7,2 244 - 0,0 156 1.017,5
09:17 17,4 14,1 16,1 81,0 7,1 244 - 0,0 156 1.017,5
09:16 17,4 14,1 16,1 81,0 7,0 261 - 0,0 153 1.017,4
09:15 17,4 14,1 16,1 81,0 7,2 251 - 0,0 149 1.017,4
09:14 17,4 14,1 16,1 81,0 7,1 251 - 0,0 146 1.017,4
09:13 17,4 14,2 16,1 81,0 7,0 244 - 0,0 146 1.017,4
09:12 17,4 14,3 16,2 81,8 6,3 239 - 0,0 146 1.017,5
09:11 17,4 14,2 16,2 81,1 6,4 288 - 0,0 147 1.017,5
09:10 17,4 14,1 16,1 81,0 6,1 260 - 0,0 148 1.017,4
09:09 17,4 14,2 16,1 81,0 6,8 204 - 0,0 147 1.017,4
09:08 17,4 14,2 16,1 81,0 7,0 244 - 0,0 143 1.017,4
09:07 17,4 14,2 16,1 81,0 7,0 222 - 0,0 141 1.017,4
09:06 17,4 14,2 16,1 81,0 6,7 240 - 0,0 138 1.017,4
09:05 17,4 14,2 16,1 81,1 6,9 260 - 0,0 132 1.017,4
09:04 17,5 14,4 16,3 82,0 7,1 263 - 0,0 127 1.017,4
09:03 17,4 14,3 16,2 81,7 7,3 270 - 0,0 125 1.017,4
09:02 17,4 14,2 16,1 81,0 7,7 241 - 0,0 122 1.017,3
09:01 17,5 14,2 16,1 81,0 7,9 256 - 0,0 118 1.017,3
09:00 17,5 14,2 16,2 81,0 7,8 259 - 0,0 113 1.017,3
 
08:59 17,4 14,2 16,1 81,0 7,7 263 - 0,0 108 1.017,3
08:58 17,4 14,2 16,1 81,0 7,8 250 - 0,0 107 1.017,3
08:57 17,4 14,2 16,1 81,0 7,9 260 - 0,0 106 1.017,3
08:56 17,4 14,2 16,1 81,0 7,9 274 - 0,0 102 1.017,3
08:55 17,4 14,0 16,0 80,4 8,0 260 - 0,0 98 1.017,3
08:54 17,4 14,1 16,1 80,8 8,1 257 - 0,0 99 1.017,3
08:53 17,4 14,2 16,2 81,1 8,3 246 - 0,0 102 1.017,2
08:52 17,5 14,4 16,3 82,0 7,4 251 - 0,0 104 1.017,2
08:51 17,4 14,3 16,2 81,6 7,0 188 - 0,0 104 1.017,2
08:50 17,5 14,3 16,3 81,6 7,2 245 - 0,0 134 1.017,2
08:49 17,5 14,4 16,3 82,0 8,0 245 - 0,0 172 1.017,2
08:48 17,5 14,4 16,3 82,0 7,3 258 - 0,0 151 1.017,1
08:47 17,5 14,4 16,3 81,9 7,0 209 - 0,0 140 1.017,1
08:46 17,4 14,2 16,2 81,3 7,1 253 - 0,0 132 1.017,1
08:45 17,5 14,4 16,3 82,0 7,5 238 - 0,0 185 1.017,1
08:44 17,5 14,4 16,3 82,0 7,5 253 - 0,0 200 1.017,2
08:43 17,4 14,4 16,3 82,0 7,0 260 - 0,0 162 1.017,1
08:42 17,4 14,2 16,1 81,2 7,6 203 - 0,0 160 1.017,0
08:41 17,4 14,2 16,1 81,2 8,2 215 - 0,0 109 1.017,0
08:40 17,4 14,4 16,3 82,0 8,0 247 - 0,0 124 1.017,1
08:39 17,4 14,4 16,3 82,5 7,6 238 - 0,0 106 1.017,1
08:38 17,4 14,4 16,3 82,5 7,1 252 - 0,0 105 1.017,1
08:37 17,4 14,3 16,2 82,0 7,1 259 - 0,0 114 1.017,1
08:36 17,4 14,5 16,4 82,9 7,0 251 - 0,0 112 1.017,1
08:35 17,4 14,5 16,4 82,9 7,0 226 - 0,0 101 1.017,1
08:34 17,4 14,4 16,3 82,3 7,0 255 - 0,0 97 1.017,1
08:33 17,4 14,5 16,4 83,0 7,0 255 - 0,0 97 1.017,1
08:32 17,5 14,5 16,4 83,0 6,7 251 - 0,0 97 1.017,1
08:31 17,4 14,5 16,4 83,0 6,3 238 - 0,0 97 1.017,1
08:30 17,4 14,5 16,4 83,0 6,1 261 - 0,0 94 1.017,2
08:29 17,4 14,5 16,4 83,0 6,3 232 - 0,0 92 1.017,1
08:28 17,4 14,5 16,3 83,0 6,7 248 - 0,0 86 1.017,1
08:27 17,3 14,4 16,3 83,0 6,7 226 - 0,0 78 1.017,0
08:26 17,3 14,4 16,3 83,0 6,7 202 - 0,0 66 1.017,1
08:25 17,4 14,5 16,3 83,0 6,4 243 - 0,0 63 1.017,1
08:24 17,3 14,4 16,3 83,0 6,6 259 - 0,0 55 1.017,1
08:23 17,3 14,5 16,3 83,2 6,6 257 - 0,0 48 1.017,0
08:22 17,3 14,6 16,4 84,0 6,8 248 - 0,0 41 1.017,0
08:21 17,3 14,6 16,4 84,0 6,7 246 - 0,0 39 1.017,0
08:20 17,4 14,6 16,5 84,0 6,6 213 - 0,0 37 1.017,0
08:19 17,4 14,8 16,6 84,8 6,8 231 - 0,0 33 1.016,9
08:18 17,4 14,9 16,6 85,0 7,0 235 - 0,0 33 1.016,9
08:17 17,4 14,9 16,6 85,0 6,8 224 - 0,0 32 1.016,9
08:16 17,4 14,8 16,6 85,0 6,6 245 - 0,0 32 1.016,9
08:15 17,3 14,7 16,5 84,3 6,8 260 - 0,0 33 1.016,9
08:14 17,3 14,7 16,5 84,7 6,8 261 - 0,0 33 1.016,9
08:13 17,3 14,8 16,6 85,0 6,3 238 - 0,0 35 1.016,9
08:12 17,3 14,8 16,6 85,0 6,0 207 - 0,0 36 1.016,8
08:11 17,3 14,8 16,6 85,0 6,0 261 - 0,0 38 1.016,8
08:10 17,3 14,8 16,6 85,0 6,3 238 - 0,0 39 1.016,9
08:09 17,3 14,8 16,6 85,0 6,3 267 - 0,0 40 1.016,9
08:08 17,3 14,7 16,5 85,0 6,4 238 - 0,0 40 1.016,8
08:07 17,3 14,7 16,5 85,0 6,5 253 - 0,0 42 1.016,8
08:06 17,3 14,9 16,6 86,0 6,5 242 - 0,0 42 1.016,8
08:05 17,2 14,9 16,6 86,0 6,8 282 - 0,0 43 1.016,8
08:04 17,2 14,8 16,5 86,0 6,6 251 - 0,0 44 1.016,7
08:03 17,1 14,9 16,6 86,6 7,2 214 - 0,0 44 1.016,7
08:02 17,1 14,9 16,6 87,0 7,0 216 - 0,0 44 1.016,8
08:01 17,0 14,9 16,6 87,9 6,3 261 - 0,0 44 1.016,8
08:00 16,9 14,9 16,6 88,2 5,5 188 - 0,0 44 1.016,8
 
07:59 16,9 15,1 16,7 89,4 5,7 269 - 0,0 45 1.016,8
07:58 16,8 15,1 16,7 90,0 6,4 253 - 0,0 46 1.016,8
07:57 16,7 15,0 16,5 90,0 4,9 271 - 0,0 46 1.016,7
07:56 16,5 14,9 16,4 90,0 5,3 179 - 0,0 46 1.016,7
07:55 16,4 14,9 16,3 90,9 5,9 226 - 0,0 43 1.016,8
07:54 16,3 14,8 16,3 91,0 5,6 241 - 0,0 41 1.016,8
07:53 16,2 14,7 16,2 91,0 4,7 231 - 0,0 40 1.016,8
07:52 16,2 14,7 16,2 91,0 4,4 208 - 0,0 39 1.016,8
07:51 16,1 14,6 16,0 90,4 4,0 232 - 0,0 39 1.016,9
07:50 16,1 14,5 15,9 90,0 4,1 244 - 0,0 37 1.016,9
07:49 16,1 14,6 16,0 90,9 4,2 226 - 0,0 37 1.016,9
07:48 16,1 14,6 16,0 91,0 4,2 243 - 0,0 36 1.016,9
07:47 16,1 14,6 16,0 91,0 4,2 243 - 0,0 35 1.016,9
07:46 16,1 14,6 16,0 91,0 4,1 234 - 0,0 35 1.016,9
07:45 16,0 14,6 16,0 91,0 4,0 213 - 0,0 35 1.016,9
07:44 16,0 14,5 16,0 91,0 4,1 211 - 0,0 35 1.016,9
07:43 16,0 14,5 16,0 91,0 4,3 234 - 0,0 35 1.016,9
07:42 16,0 14,5 15,9 91,0 4,2 209 - 0,0 35 1.016,9
07:41 16,0 14,5 15,9 91,0 3,9 210 - 0,0 35 1.016,8
07:40 16,0 14,5 15,9 91,0 3,7 216 - 0,0 35 1.016,8
07:39 16,0 14,5 15,9 91,0 3,8 234 - 0,0 35 1.016,8
07:38 15,9 14,5 15,9 91,0 3,5 218 - 0,0 35 1.016,8
07:37 15,9 14,5 15,9 91,0 3,3 182 - 0,0 35 1.016,8
07:36 15,9 14,5 15,9 91,0 3,0 235 - 0,0 34 1.016,8
07:35 15,9 14,4 15,9 91,0 2,8 217 - 0,0 33 1.016,8
07:34 15,9 14,4 15,8 91,0 2,9 199 - 0,0 32 1.016,8
07:33 15,9 14,4 15,8 91,0 3,3 202 - 0,0 32 1.016,7
07:32 15,9 14,4 15,8 91,0 3,7 201 - 0,0 32 1.016,7
07:31 15,9 14,4 15,8 91,0 3,7 207 - 0,0 32 1.016,7
07:30 15,9 14,4 15,8 91,0 3,3 199 - 0,0 32 1.016,7
07:29 15,9 14,4 15,8 91,0 3,2 226 - 0,0 32 1.016,7
07:28 15,8 14,4 15,8 91,0 3,2 224 - 0,0 32 1.016,7
07:27 15,8 14,3 15,8 91,0 3,6 228 - 0,0 30 1.016,7
07:26 15,8 14,3 15,8 91,0 3,7 211 - 0,0 29 1.016,7
07:25 15,8 14,3 15,8 91,0 3,6 208 - 0,0 27 1.016,6
07:24 15,8 14,3 15,8 91,0 3,3 241 - 0,0 26 1.016,7
07:23 15,8 14,3 15,8 91,0 3,2 190 - 0,0 24 1.016,7
07:22 15,8 14,3 15,8 91,0 3,2 224 - 0,0 23 1.016,7
07:21 15,8 14,3 15,8 91,0 3,0 210 - 0,0 21 1.016,7
07:20 15,8 14,3 15,8 91,0 2,7 231 - 0,0 20 1.016,7
07:19 15,8 14,3 15,8 91,0 2,8 228 - 0,0 19 1.016,6
07:18 15,8 14,3 15,8 91,0 2,9 206 - 0,0 19 1.016,6
07:17 15,8 14,3 15,8 91,0 3,0 203 - 0,0 18 1.016,6
07:16 15,8 14,3 15,8 91,0 2,9 195 - 0,0 18 1.016,6
07:15 15,8 14,3 15,8 91,0 2,8 202 - 0,0 18 1.016,6
07:14 15,8 14,3 15,8 91,0 2,7 191 - 0,0 17 1.016,6
07:13 15,8 14,3 15,8 91,0 2,7 215 - 0,0 16 1.016,6
07:12 15,8 14,4 15,8 91,0 2,9 222 - 0,0 16 1.016,6
07:11 15,8 14,3 15,8 91,0 2,8 197 - 0,0 14 1.016,5
07:10 15,8 14,3 15,8 91,0 2,8 240 - 0,0 14 1.016,5
07:09 15,9 14,4 15,8 91,0 2,8 197 - 0,0 14 1.016,5
07:08 15,8 14,3 15,8 91,0 2,9 198 - 0,0 13 1.016,5
07:07 15,8 14,4 15,8 91,0 3,0 222 - 0,0 12 1.016,6
07:06 15,8 14,3 15,8 91,0 3,1 213 - 0,0 12 1.016,6
07:05 15,8 14,3 15,8 91,0 3,2 208 - 0,0 11 1.016,5
07:04 15,8 14,3 15,8 91,0 3,4 220 - 0,0 11 1.016,5
07:03 15,8 14,3 15,7 91,0 3,4 227 - 0,0 11 1.016,5
07:02 15,8 14,3 15,7 91,0 3,1 195 - 0,0 9 1.016,5
07:01 15,8 14,3 15,7 91,0 2,9 236 - 0,0 8 1.016,5
07:00 15,8 14,3 15,7 91,0 2,9 209 - 0,0 7 1.016,5
 
06:59 15,8 14,3 15,7 91,0 2,8 205 - 0,0 7 1.016,5
06:58 15,8 14,3 15,7 91,0 2,8 199 - 0,0 7 1.016,5
06:57 15,8 14,3 15,7 91,0 3,0 198 - 0,0 6 1.016,5
06:56 15,8 14,3 15,7 91,0 3,3 215 - 0,0 5 1.016,5
06:55 15,8 14,3 15,7 91,0 3,2 202 - 0,0 5 1.016,5
06:54 15,8 14,3 15,7 91,0 2,9 200 - 0,0 5 1.016,5
06:53 15,8 14,3 15,7 91,0 2,5 180 - 0,0 5 1.016,5
06:52 15,8 14,3 15,7 91,0 2,3 236 - 0,0 5 1.016,5
06:51 15,8 14,3 15,7 91,0 2,6 188 - 0,0 5 1.016,5
06:50 15,8 14,1 15,6 90,1 2,7 226 - 0,0 3 1.016,4
06:49 15,8 14,1 15,6 90,0 2,7 177 - 0,0 0 1.016,4
06:48 15,8 14,1 15,6 90,0 2,6 201 - 0,0 0 1.016,4
06:47 15,8 14,1 15,6 90,0 2,6 184 - 0,0 0 1.016,4
06:46 15,8 14,1 15,6 90,0 2,5 224 - 0,0 0 1.016,4
06:45 15,8 14,1 15,6 90,0 2,5 170 - 0,0 0 1.016,4
06:44 15,8 14,1 15,6 90,0 2,5 195 - 0,0 0 1.016,4
06:43 15,8 14,1 15,6 90,0 2,7 199 - 0,0 0 1.016,4
06:42 15,8 14,1 15,6 90,0 2,9 199 - 0,0 0 1.016,4
06:41 15,8 14,2 15,6 90,0 3,2 197 - 0,0 0 1.016,4
06:40 15,8 14,2 15,6 90,0 3,2 172 - 0,0 0 1.016,4
06:39 15,8 14,2 15,6 90,0 3,0 191 - 0,0 0 1.016,4
06:38 15,8 14,2 15,6 90,0 2,8 188 - 0,0 0 1.016,4
06:37 15,8 14,2 15,7 90,0 2,8 198 - 0,0 0 1.016,4
06:36 15,9 14,2 15,7 90,0 2,7 196 - 0,0 0 1.016,4
06:35 15,9 14,2 15,7 90,0 2,6 197 - 0,0 0 1.016,3
06:34 15,9 14,2 15,7 90,0 2,6 172 - 0,0 0 1.016,3
06:33 15,9 14,2 15,7 90,0 2,7 201 - 0,0 0 1.016,3
06:32 15,9 14,2 15,7 90,0 2,7 195 - 0,0 0 1.016,3
06:31 15,9 14,3 15,8 90,0 2,6 175 - 0,0 0 1.016,3
06:30 15,9 14,3 15,8 90,0 2,5 182 - 0,0 0 1.016,3
06:29 15,9 14,3 15,8 90,0 2,4 172 - 0,0 0 1.016,3
06:28 15,9 14,3 15,8 90,0 2,7 185 - 0,0 0 1.016,3
06:27 15,9 14,3 15,8 90,0 2,8 192 - 0,0 0 1.016,3
06:26 15,9 14,3 15,8 90,0 2,5 187 - 0,0 0 1.016,3
06:25 16,0 14,3 15,8 90,0 2,1 156 - 0,0 0 1.016,3
06:24 16,0 14,3 15,8 90,0 2,2 201 - 0,0 0 1.016,3
06:23 16,0 14,3 15,8 90,0 2,5 193 - 0,0 0 1.016,3
06:22 16,0 14,3 15,8 90,0 2,6 194 - 0,0 0 1.016,3
06:21 16,0 14,2 15,7 89,1 2,6 212 - 0,0 0 1.016,3
06:20 16,0 14,2 15,7 89,0 2,8 210 - 0,0 0 1.016,3
06:19 16,0 14,2 15,7 89,0 2,8 207 - 0,0 0 1.016,3
06:18 16,1 14,2 15,8 89,0 2,7 209 - 0,0 0 1.016,3
06:17 16,1 14,2 15,8 89,0 2,3 211 - 0,0 0 1.016,3
06:16 16,1 14,3 15,8 89,0 1,9 157 - 0,0 0 1.016,2
06:15 16,1 14,3 15,8 89,0 2,0 200 - 0,0 0 1.016,2
06:14 16,1 14,3 15,8 89,0 2,2 183 - 0,0 0 1.016,3
06:13 16,2 14,3 15,9 89,0 2,2 203 - 0,0 0 1.016,2
06:12 16,2 14,3 15,9 89,0 2,1 184 - 0,0 0 1.016,2
06:11 16,2 14,3 15,9 89,0 2,3 178 - 0,0 0 1.016,2
06:10 16,2 14,3 15,9 89,0 2,4 205 - 0,0 0 1.016,2
06:09 16,2 14,4 15,9 89,0 2,2 192 - 0,0 0 1.016,2
06:08 16,2 14,4 15,9 89,0 2,1 170 - 0,0 0 1.016,2
06:07 16,2 14,4 15,9 89,0 2,3 201 - 0,0 0 1.016,2
06:06 16,3 14,4 16,0 89,0 2,7 211 - 0,0 0 1.016,2
06:05 16,3 14,3 15,9 88,3 2,7 197 - 0,0 0 1.016,2
06:04 16,3 14,3 15,9 88,0 2,7 196 - 0,0 0 1.016,2
06:03 16,3 14,3 15,9 88,0 2,6 192 - 0,0 0 1.016,3
06:02 16,3 14,3 15,9 88,0 2,6 203 - 0,0 0 1.016,3
06:01 16,3 14,3 15,9 88,0 2,7 190 - 0,0 0 1.016,2
06:00 16,4 14,4 16,0 88,0 2,7 231 - 0,0 0 1.016,2
 
05:59 16,4 14,4 16,0 88,0 2,7 180 - 0,0 0 1.016,2
05:58 16,4 14,4 16,0 88,0 2,8 189 - 0,0 0 1.016,3
05:57 16,5 14,5 16,1 88,0 2,7 196 - 0,0 0 1.016,3
05:56 16,5 14,5 16,1 88,0 2,6 204 - 0,0 0 1.016,2
05:55 16,5 14,5 16,1 88,0 2,4 182 - 0,0 0 1.016,2
05:54 16,6 14,5 16,1 87,4 2,4 201 - 0,0 0 1.016,2
05:53 16,6 14,4 16,1 87,0 2,3 180 - 0,0 0 1.016,2
05:52 16,7 14,5 16,1 87,0 2,3 195 - 0,0 0 1.016,2
05:51 16,7 14,5 16,2 87,0 2,3 203 - 0,0 0 1.016,2
05:50 16,8 14,6 16,2 87,0 2,4 207 - 0,0 0 1.016,2
05:49 16,8 14,6 16,3 87,0 2,3 183 - 0,0 0 1.016,2
05:48 16,8 14,7 16,3 87,0 2,2 195 - 0,0 0 1.016,2
05:47 16,9 14,7 16,3 87,0 2,0 180 - 0,0 0 1.016,2
05:46 16,9 14,7 16,4 87,0 2,2 172 - 0,0 0 1.016,3
05:45 16,9 14,7 16,4 87,0 2,5 205 - 0,0 0 1.016,2
05:44 16,9 14,8 16,4 87,0 2,8 210 - 0,0 0 1.016,2
05:43 16,9 14,8 16,4 87,0 2,7 215 - 0,0 0 1.016,2
05:42 17,0 14,8 16,5 87,0 2,8 232 - 0,0 0 1.016,2
05:41 17,0 14,7 16,4 86,3 3,0 217 - 0,0 0 1.016,2
05:40 17,1 14,7 16,4 86,0 3,2 207 - 0,0 0 1.016,2
05:39 17,1 14,7 16,5 86,0 3,3 215 - 0,0 0 1.016,2
05:38 17,2 14,7 16,5 85,7 3,2 213 - 0,0 0 1.016,2
05:37 17,2 14,7 16,5 85,0 2,9 222 - 0,0 0 1.016,1
05:36 17,3 14,8 16,5 85,0 2,7 209 - 0,0 0 1.016,1
05:35 17,4 14,8 16,6 85,0 2,7 211 - 0,0 0 1.016,1
05:34 17,4 14,9 16,7 85,0 2,7 226 - 0,0 0 1.016,1
05:33 17,5 15,0 16,8 85,0 2,7 205 - 0,0 0 1.016,1
05:32 17,6 15,1 16,9 85,0 2,5 213 - 0,0 0 1.016,2
05:31 17,7 15,2 17,0 85,0 2,4 192 - 0,0 0 1.016,1
05:30 17,8 15,2 17,0 85,0 2,4 183 - 0,0 0 1.016,1
05:29 17,8 15,3 17,1 85,0 2,5 199 - 0,0 0 1.016,1
05:28 17,8 15,2 17,0 85,0 3,3 209 - 0,0 0 1.016,1
05:27 17,8 15,2 17,0 85,0 4,4 230 - 0,0 0 1.016,0
05:26 17,8 15,2 17,0 85,0 5,2 249 - 0,0 0 1.016,0
05:25 17,8 15,2 17,0 85,0 5,4 253 - 0,0 0 1.016,0
05:24 17,8 15,2 17,0 85,0 5,6 254 - 0,0 0 1.016,0
05:23 17,8 15,2 17,0 85,0 5,9 265 - 0,0 0 1.016,0
05:22 17,8 15,4 17,2 86,0 5,9 262 - 0,0 0 1.016,0
05:21 17,8 15,4 17,2 86,0 5,8 253 - 0,0 0 1.015,9
05:20 17,7 15,4 17,1 86,0 5,7 258 - 0,0 0 1.016,0
05:19 17,7 15,3 17,1 86,0 5,9 236 - 0,0 0 1.015,9
05:18 17,7 15,3 17,1 86,0 6,1 253 - 0,0 0 1.015,9
05:17 17,6 15,3 17,0 86,0 6,3 259 - 0,0 0 1.015,9
05:16 17,6 15,4 17,1 87,0 6,1 267 - 0,0 0 1.015,9
05:15 17,6 15,4 17,1 87,0 6,0 251 - 0,0 0 1.015,9
05:14 17,5 15,3 17,0 87,0 5,5 266 - 0,0 0 1.015,9
05:13 17,4 15,4 17,0 87,6 5,6 204 - 0,0 0 1.015,9
05:12 17,4 15,3 17,0 88,0 5,8 251 - 0,0 0 1.015,9
05:11 17,3 15,4 17,0 88,9 5,3 209 - 0,0 0 1.015,9
05:10 17,2 15,4 17,0 89,2 5,3 278 - 0,0 0 1.015,9
05:09 17,1 15,4 17,0 90,0 6,1 273 - 0,0 0 1.015,9
05:08 16,9 15,2 16,8 90,0 6,2 255 - 0,0 0 1.015,8
05:07 16,7 15,2 16,7 90,6 6,1 255 - 0,0 0 1.015,8
05:06 16,5 14,9 16,4 90,3 5,9 261 - 0,0 0 1.015,9
05:05 16,2 14,6 16,1 90,0 4,7 285 - 0,0 0 1.015,9
05:04 16,2 14,4 15,9 89,0 3,3 213 - 0,0 0 1.015,9
05:03 16,3 14,4 16,0 89,0 2,7 228 - 0,0 0 1.016,0
05:02 16,3 14,4 16,0 89,0 2,3 242 - 0,0 0 1.016,0
05:01 16,3 14,5 16,0 89,0 2,1 216 - 0,0 0 1.016,0
05:00 16,4 14,5 16,1 89,0 1,9 218 - 0,0 0 1.016,0
 
04:59 16,4 14,6 16,1 89,0 1,8 208 - 0,0 0 1.016,0
04:58 16,4 14,6 16,2 89,0 1,9 247 - 0,0 0 1.015,9
04:57 16,5 14,6 16,2 89,0 1,7 211 - 0,0 0 1.016,0
04:56 16,5 14,8 16,3 89,5 1,9 172 - 0,0 0 1.016,0
04:55 16,5 14,9 16,4 90,0 2,0 182 - 0,0 0 1.016,0
04:54 16,6 14,9 16,4 90,0 2,0 192 - 0,0 0 1.016,0
04:53 16,6 14,9 16,4 90,0 2,1 183 - 0,0 0 1.016,0
04:52 16,6 14,9 16,4 90,0 2,4 209 - 0,0 0 1.016,0
04:51 16,6 14,9 16,4 90,0 2,6 195 - 0,0 0 1.016,0
04:50 16,6 14,8 16,4 89,5 2,9 228 - 0,0 0 1.016,0
04:49 16,6 14,7 16,3 89,0 3,1 213 - 0,0 0 1.016,0
04:48 16,6 14,7 16,3 89,0 3,0 215 - 0,0 0 1.016,0
04:47 16,6 14,8 16,3 89,0 2,9 204 - 0,0 0 1.016,0
04:46 16,6 14,8 16,3 89,0 3,0 206 - 0,0 0 1.016,0
04:45 16,6 14,8 16,3 89,0 3,2 228 - 0,0 0 1.016,0
04:44 16,6 14,8 16,3 89,0 3,2 219 - 0,0 0 1.016,0
04:43 16,6 14,8 16,4 89,0 3,2 233 - 0,0 0 1.016,0
04:42 16,7 14,8 16,4 89,0 3,3 229 - 0,0 0 1.015,9
04:41 16,7 14,8 16,4 89,0 3,3 209 - 0,0 0 1.015,9
04:40 16,7 14,9 16,4 89,0 3,3 219 - 0,0 0 1.015,9
04:39 16,7 14,9 16,4 89,0 3,3 207 - 0,0 0 1.015,9
04:38 16,7 14,9 16,5 89,0 3,2 209 - 0,0 0 1.015,9
04:37 16,7 14,9 16,5 89,0 3,3 221 - 0,0 0 1.015,9
04:36 16,8 14,9 16,5 89,0 3,3 202 - 0,0 0 1.015,9
04:35 16,8 14,9 16,5 89,0 3,2 205 - 0,0 0 1.015,9
04:34 16,8 14,9 16,5 89,0 2,9 186 - 0,0 0 1.015,9
04:33 16,8 14,9 16,5 89,0 3,0 209 - 0,0 0 1.015,9
04:32 16,8 14,8 16,4 88,4 3,2 201 - 0,0 0 1.015,9
04:31 16,8 14,8 16,4 88,0 3,2 216 - 0,0 0 1.015,8
04:30 16,8 14,8 16,4 88,0 3,0 201 - 0,0 0 1.015,9
04:29 16,8 14,8 16,4 88,0 2,9 223 - 0,0 0 1.015,9
04:28 16,8 14,8 16,4 88,0 3,0 206 - 0,0 0 1.015,9
04:27 16,8 14,8 16,4 88,0 3,2 201 - 0,0 0 1.015,9
04:26 16,9 14,8 16,5 88,0 3,3 231 - 0,0 0 1.016,0
04:25 16,9 14,9 16,5 88,0 3,0 208 - 0,0 0 1.016,0
04:24 16,9 14,9 16,6 88,0 2,6 192 - 0,0 0 1.016,0
04:23 17,0 14,9 16,6 88,0 2,5 200 - 0,0 0 1.016,0
04:22 17,0 14,9 16,5 87,7 2,6 220 - 0,0 0 1.016,0
04:21 17,0 14,8 16,5 87,0 3,0 254 - 0,0 0 1.016,0
04:20 17,0 14,9 16,5 87,0 3,2 219 - 0,0 0 1.016,0
04:19 17,1 14,9 16,5 87,0 3,3 222 - 0,0 0 1.016,0
04:18 17,1 14,9 16,6 87,0 3,1 215 - 0,0 0 1.016,0
04:17 17,1 14,9 16,6 87,0 2,7 215 - 0,0 0 1.016,0
04:16 17,2 14,9 16,6 86,5 2,4 228 - 0,0 0 1.016,0
04:15 17,2 14,9 16,6 86,0 2,4 203 - 0,0 0 1.015,9
04:14 17,3 14,9 16,7 86,0 2,6 216 - 0,0 0 1.015,9
04:13 17,4 15,0 16,7 86,0 2,6 199 - 0,0 0 1.015,9
04:12 17,4 15,1 16,8 86,0 2,6 187 - 0,0 0 1.016,0
04:11 17,5 15,2 16,9 86,0 2,4 199 - 0,0 0 1.016,0
04:10 17,6 15,2 17,0 86,0 2,4 195 - 0,0 0 1.016,0
04:09 17,7 15,3 17,1 86,0 2,6 201 - 0,0 0 1.016,0
04:08 17,8 15,4 17,1 86,0 2,5 171 - 0,0 0 1.015,9
04:07 17,9 15,6 17,4 86,8 2,5 220 - 0,0 0 1.015,9
04:06 17,9 15,7 17,5 87,0 2,7 184 - 0,0 0 1.015,9
04:05 17,9 15,7 17,5 87,0 3,6 219 - 0,0 0 1.015,8
04:04 17,9 15,7 17,5 87,0 4,7 229 - 0,0 0 1.015,8
04:03 18,0 15,8 17,5 87,0 5,3 226 - 0,0 0 1.015,8
04:02 18,0 15,8 17,5 87,0 5,3 232 - 0,0 0 1.015,8
04:01 18,0 15,8 17,5 87,0 5,3 208 - 0,0 0 1.015,8
04:00 17,9 15,7 17,5 87,0 5,0 207 - 0,0 0 1.015,8
 
03:59 17,9 15,7 17,5 87,0 4,6 251 - 0,0 0 1.015,8
03:58 17,9 15,7 17,5 87,0 5,1 286 - 0,0 0 1.015,8
03:57 17,9 15,7 17,5 87,0 3,8 274 - 0,0 0 1.015,8
03:56 17,9 15,7 17,5 87,0 4,1 178 - 0,0 0 1.015,7
03:55 18,0 15,8 17,5 87,0 4,6 218 - 0,0 0 1.015,7
03:54 17,9 15,7 17,5 87,0 4,8 247 - 0,0 0 1.015,7
03:53 17,9 15,7 17,5 87,0 4,9 259 - 0,0 0 1.015,7
03:52 17,9 15,7 17,5 87,0 4,7 255 - 0,0 0 1.015,7
03:51 17,9 15,7 17,4 87,0 4,6 222 - 0,0 0 1.015,7
03:50 17,9 15,7 17,4 87,0 4,8 235 - 0,0 0 1.015,7
03:49 17,9 15,7 17,4 87,0 5,0 233 - 0,0 0 1.015,7
03:48 17,9 15,7 17,4 87,0 5,1 234 - 0,0 0 1.015,6
03:47 17,9 15,7 17,4 87,0 5,0 209 - 0,0 0 1.015,6
03:46 17,8 15,6 17,4 87,0 5,2 249 - 0,0 0 1.015,6
03:45 17,8 15,8 17,5 87,6 5,3 229 - 0,0 0 1.015,6
03:44 17,8 15,8 17,5 88,0 5,3 213 - 0,0 0 1.015,6
03:43 17,8 15,8 17,5 88,0 5,1 229 - 0,0 0 1.015,6
03:42 17,8 15,8 17,4 88,0 5,2 247 - 0,0 0 1.015,7
03:41 17,8 15,7 17,4 88,0 5,3 242 - 0,0 0 1.015,6
03:40 17,7 15,7 17,4 88,0 5,5 231 - 0,0 0 1.015,6
03:39 17,7 15,7 17,4 88,0 5,6 244 - 0,0 0 1.015,5
03:38 17,7 15,8 17,5 88,8 5,3 225 - 0,0 0 1.015,6
03:37 17,7 15,8 17,5 89,0 5,0 235 - 0,0 0 1.015,6
03:36 17,6 15,8 17,4 89,0 4,8 234 - 0,0 0 1.015,6
03:35 17,5 15,7 17,3 89,0 4,8 256 - 0,0 0 1.015,6
03:34 17,5 15,7 17,3 89,5 4,9 217 - 0,0 0 1.015,6
03:33 17,4 15,6 17,2 89,4 4,7 243 - 0,0 0 1.015,6
03:32 17,3 15,4 17,0 89,0 4,6 281 - 0,0 0 1.015,6
03:31 17,2 15,5 17,1 90,0 4,2 215 - 0,0 0 1.015,6
03:30 17,1 15,4 17,0 90,0 4,2 279 - 0,0 0 1.015,6
03:29 17,0 15,3 16,9 89,6 3,9 237 - 0,0 0 1.015,6
03:28 17,0 15,3 16,8 89,6 3,5 232 - 0,0 0 1.015,7
03:27 17,0 15,3 16,9 90,0 3,2 230 - 0,0 0 1.015,7
03:26 17,0 15,3 16,9 90,0 3,4 209 - 0,0 0 1.015,6
03:25 17,0 15,3 16,8 89,9 3,7 215 - 0,0 0 1.015,7
03:24 16,9 15,1 16,7 89,0 3,8 238 - 0,0 0 1.015,7
03:23 16,9 15,1 16,6 89,0 3,6 240 - 0,0 0 1.015,7
03:22 16,9 15,1 16,6 89,0 3,3 204 - 0,0 0 1.015,7
03:21 16,9 15,1 16,7 89,0 3,2 228 - 0,0 0 1.015,7
03:20 16,9 15,1 16,7 89,0 3,3 214 - 0,0 0 1.015,7
03:19 16,9 15,1 16,7 89,0 3,8 212 - 0,0 0 1.015,7
03:18 16,9 15,1 16,6 89,0 4,0 238 - 0,0 0 1.015,6
03:17 16,9 15,0 16,6 89,0 4,0 228 - 0,0 0 1.015,7
03:16 16,9 15,1 16,7 89,0 3,8 231 - 0,0 0 1.015,7
03:15 16,9 15,1 16,7 89,0 4,0 220 - 0,0 0 1.015,7
03:14 16,9 15,0 16,6 89,0 4,4 205 - 0,0 0 1.015,6
03:13 16,8 15,0 16,6 89,0 4,7 231 - 0,0 0 1.015,6
03:12 16,8 15,0 16,5 89,0 4,6 230 - 0,0 0 1.015,7
03:11 16,8 14,9 16,5 89,0 4,3 226 - 0,0 0 1.015,7
03:10 16,8 14,9 16,5 89,0 4,3 212 - 0,0 0 1.015,7
03:09 16,8 14,9 16,5 89,0 4,5 221 - 0,0 0 1.015,7
03:08 16,8 14,9 16,5 89,0 4,8 220 - 0,0 0 1.015,7
03:07 16,7 14,9 16,5 89,0 5,0 218 - 0,0 0 1.015,6
03:06 16,7 14,8 16,4 89,0 4,9 216 - 0,0 0 1.015,6
03:05 16,7 14,8 16,4 89,0 4,8 227 - 0,0 0 1.015,6
03:04 16,6 14,8 16,4 89,0 4,8 226 - 0,0 0 1.015,7
03:03 16,6 14,8 16,3 89,0 4,7 231 - 0,0 0 1.015,7
03:02 16,6 14,8 16,3 89,0 4,6 214 - 0,0 0 1.015,6
03:01 16,6 14,8 16,3 89,0 4,7 207 - 0,0 0 1.015,6
03:00 16,6 14,8 16,3 89,0 4,7 201 - 0,0 0 1.015,7
 
02:59 16,6 14,8 16,3 89,0 4,5 213 - 0,0 0 1.015,6
02:58 16,6 14,7 16,3 88,4 4,2 191 - 0,0 0 1.015,6
02:57 16,6 14,6 16,2 88,0 4,0 233 - 0,0 0 1.015,6
02:56 16,6 14,6 16,2 88,0 4,1 219 - 0,0 0 1.015,6
02:55 16,6 14,6 16,2 88,0 4,0 229 - 0,0 0 1.015,6
02:54 16,6 14,6 16,2 88,0 4,0 201 - 0,0 0 1.015,6
02:53 16,7 14,7 16,3 88,0 3,8 213 - 0,0 0 1.015,6
02:52 16,7 14,7 16,3 88,0 3,9 246 - 0,0 0 1.015,6
02:51 16,6 14,6 16,2 88,0 4,2 226 - 0,0 0 1.015,6
02:50 16,6 14,6 16,2 88,0 4,5 221 - 0,0 0 1.015,6
02:49 16,6 14,6 16,2 88,0 4,4 212 - 0,0 0 1.015,6
02:48 16,6 14,6 16,2 88,0 3,8 232 - 0,0 0 1.015,6
02:47 16,6 14,6 16,2 88,0 3,4 232 - 0,0 0 1.015,6
02:46 16,6 14,6 16,2 88,0 3,1 217 - 0,0 0 1.015,6
02:45 16,7 14,6 16,3 88,0 3,1 219 - 0,0 0 1.015,5
02:44 16,7 14,7 16,3 88,0 3,3 215 - 0,0 0 1.015,5
02:43 16,7 14,7 16,3 88,0 3,7 194 - 0,0 0 1.015,6
02:42 16,7 14,7 16,3 88,0 3,7 219 - 0,0 0 1.015,5
02:41 16,8 14,8 16,4 88,0 3,5 205 - 0,0 0 1.015,5
02:40 16,8 14,8 16,4 88,0 3,3 209 - 0,0 0 1.015,6
02:39 16,8 14,8 16,4 88,0 3,2 201 - 0,0 0 1.015,5
02:38 16,8 14,8 16,4 88,0 3,1 217 - 0,0 0 1.015,5
02:37 16,9 14,9 16,5 88,0 3,1 171 - 0,0 0 1.015,5
02:36 16,9 14,9 16,5 88,0 3,2 213 - 0,0 0 1.015,5
02:35 16,8 14,8 16,4 88,0 3,8 236 - 0,0 0 1.015,5
02:34 16,8 14,8 16,5 88,0 3,8 211 - 0,0 0 1.015,5
02:33 16,9 14,8 16,5 88,0 3,9 190 - 0,0 0 1.015,5
02:32 16,8 14,8 16,4 88,0 4,0 215 - 0,0 0 1.015,5
02:31 16,8 14,8 16,4 88,0 4,1 209 - 0,0 0 1.015,4
02:30 16,8 14,8 16,4 88,0 4,0 209 - 0,0 0 1.015,4
02:29 16,8 14,8 16,4 88,0 4,2 196 - 0,0 0 1.015,4
02:28 16,8 14,8 16,4 88,0 3,9 194 - 0,0 0 1.015,4
02:27 16,8 14,8 16,4 88,0 3,5 244 - 0,0 0 1.015,4
02:26 16,8 14,8 16,4 88,0 3,4 182 - 0,0 0 1.015,4
02:25 16,8 14,8 16,4 88,0 3,8 187 - 0,0 0 1.015,4
02:24 16,8 14,8 16,4 88,0 3,9 207 - 0,0 0 1.015,4
02:23 16,8 14,7 16,3 87,4 4,0 193 - 0,0 0 1.015,4
02:22 16,8 14,6 16,3 87,0 4,1 209 - 0,0 0 1.015,4
02:21 16,8 14,6 16,3 87,0 4,0 195 - 0,0 0 1.015,4
02:20 16,8 14,6 16,3 87,0 3,8 236 - 0,0 0 1.015,4
02:19 16,8 14,6 16,3 87,0 3,6 219 - 0,0 0 1.015,4
02:18 16,8 14,6 16,3 87,0 3,6 228 - 0,0 0 1.015,4
02:17 16,8 14,6 16,3 87,0 3,4 210 - 0,0 0 1.015,4
02:16 16,8 14,6 16,3 87,0 3,6 174 - 0,0 0 1.015,4
02:15 16,8 14,6 16,3 87,0 3,7 195 - 0,0 0 1.015,4
02:14 16,8 14,6 16,3 87,0 3,6 198 - 0,0 0 1.015,4
02:13 16,8 14,7 16,3 87,0 3,5 210 - 0,0 0 1.015,4
02:12 16,9 14,7 16,3 87,0 3,5 209 - 0,0 0 1.015,4
02:11 16,9 14,7 16,4 87,0 3,5 203 - 0,0 0 1.015,4
02:10 16,9 14,6 16,3 86,2 3,6 196 - 0,0 0 1.015,4
02:09 16,9 14,6 16,3 86,3 3,7 204 - 0,0 0 1.015,4
02:08 16,9 14,7 16,4 86,6 3,7 213 - 0,0 0 1.015,4
02:07 16,9 14,6 16,3 86,0 3,8 168 - 0,0 0 1.015,4
02:06 16,9 14,6 16,3 86,0 4,0 190 - 0,0 0 1.015,4
02:05 16,9 14,6 16,3 86,0 3,9 197 - 0,0 0 1.015,4
02:04 17,0 14,6 16,3 86,0 3,9 213 - 0,0 0 1.015,4
02:03 17,0 14,6 16,3 86,0 3,9 211 - 0,0 0 1.015,4
02:02 17,0 14,7 16,4 86,3 3,8 215 - 0,0 0 1.015,4
02:01 17,0 14,8 16,5 87,0 3,9 211 - 0,0 0 1.015,4
02:00 17,0 14,8 16,5 87,0 4,1 214 - 0,0 0 1.015,4
 
01:59 17,0 14,8 16,5 87,0 3,9 225 - 0,0 0 1.015,3
01:58 17,0 14,8 16,5 87,0 3,7 207 - 0,0 0 1.015,3
01:57 17,0 14,8 16,5 87,0 3,8 229 - 0,0 0 1.015,4
01:56 17,0 14,8 16,5 87,0 3,8 200 - 0,0 0 1.015,4
01:55 17,0 14,8 16,5 87,0 3,6 195 - 0,0 0 1.015,4
01:54 17,0 14,8 16,5 87,0 3,3 228 - 0,0 0 1.015,4
01:53 17,0 14,8 16,5 87,0 3,3 207 - 0,0 0 1.015,3
01:52 17,0 14,9 16,5 87,0 3,1 222 - 0,0 0 1.015,3
01:51 17,0 14,9 16,5 87,0 3,0 200 - 0,0 0 1.015,3
01:50 17,1 14,9 16,6 87,0 3,0 232 - 0,0 0 1.015,3
01:49 17,1 14,9 16,6 87,0 3,1 186 - 0,0 0 1.015,4
01:48 17,1 14,9 16,6 87,0 3,3 203 - 0,0 0 1.015,4
01:47 17,1 14,9 16,6 87,0 3,2 219 - 0,0 0 1.015,3
01:46 17,1 14,9 16,6 87,0 3,0 203 - 0,0 0 1.015,3
01:45 17,1 14,9 16,6 87,0 3,0 209 - 0,0 0 1.015,3
01:44 17,1 14,9 16,6 87,0 3,0 223 - 0,0 0 1.015,3
01:43 17,1 14,9 16,5 87,0 3,2 198 - 0,0 0 1.015,3
01:42 17,1 14,9 16,5 87,0 3,2 237 - 0,0 0 1.015,3
01:41 17,1 14,9 16,5 87,0 3,0 197 - 0,0 0 1.015,3
01:40 17,1 14,9 16,6 87,0 2,7 209 - 0,0 0 1.015,2
01:39 17,1 14,9 16,6 87,0 2,4 195 - 0,0 0 1.015,3
01:38 17,1 14,9 16,6 87,0 2,5 205 - 0,0 0 1.015,2
01:37 17,1 14,8 16,5 86,5 2,7 208 - 0,0 0 1.015,2
01:36 17,1 14,7 16,5 86,0 2,7 213 - 0,0 0 1.015,2
01:35 17,1 14,7 16,5 86,0 2,7 215 - 0,0 0 1.015,2
01:34 17,1 14,7 16,5 86,0 2,6 219 - 0,0 0 1.015,2
01:33 17,1 14,7 16,5 86,0 2,7 214 - 0,0 0 1.015,2
01:32 17,1 14,8 16,5 86,0 2,9 184 - 0,0 0 1.015,2
01:31 17,1 14,7 16,5 86,0 3,0 202 - 0,0 0 1.015,2
01:30 17,1 14,8 16,5 86,0 2,9 213 - 0,0 0 1.015,1
01:29 17,1 14,7 16,5 86,0 2,9 210 - 0,0 0 1.015,2
01:28 17,1 14,7 16,5 86,0 2,9 211 - 0,0 0 1.015,2
01:27 17,1 14,7 16,5 86,0 2,9 215 - 0,0 0 1.015,2
01:26 17,1 14,7 16,5 86,0 2,8 213 - 0,0 0 1.015,2
01:25 17,1 14,7 16,5 86,0 2,6 214 - 0,0 0 1.015,2
01:24 17,1 14,8 16,5 86,0 2,6 217 - 0,0 0 1.015,1
01:23 17,1 14,8 16,5 86,0 2,7 227 - 0,0 0 1.015,1
01:22 17,1 14,8 16,5 86,0 2,7 222 - 0,0 0 1.015,1
01:21 17,1 14,8 16,5 86,0 2,7 223 - 0,0 0 1.015,1
01:20 17,1 14,8 16,5 86,0 2,7 202 - 0,0 0 1.015,1
01:19 17,1 14,8 16,5 86,0 2,6 202 - 0,0 0 1.015,1
01:18 17,1 14,8 16,5 86,0 2,5 199 - 0,0 0 1.015,1
01:17 17,1 14,8 16,5 86,0 2,4 201 - 0,0 0 1.015,1
01:16 17,1 14,8 16,5 86,0 2,5 201 - 0,0 0 1.015,1
01:15 17,1 14,8 16,5 86,0 2,6 191 - 0,0 0 1.015,1
01:14 17,1 14,8 16,5 86,0 2,7 199 - 0,0 0 1.015,1
01:13 17,1 14,8 16,5 86,0 2,8 208 - 0,0 0 1.015,2
01:12 17,1 14,8 16,5 86,0 3,0 196 - 0,0 0 1.015,2
01:11 17,1 14,8 16,5 86,0 2,9 196 - 0,0 0 1.015,1
01:10 17,1 14,8 16,5 86,0 2,8 223 - 0,0 0 1.015,1
01:09 17,1 14,8 16,5 86,0 2,8 215 - 0,0 0 1.015,1
01:08 17,1 14,8 16,5 86,0 2,8 207 - 0,0 0 1.015,1
01:07 17,1 14,8 16,5 86,0 2,7 218 - 0,0 0 1.015,1
01:06 17,2 14,8 16,5 86,0 2,7 197 - 0,0 0 1.015,2
01:05 17,2 14,8 16,5 86,0 3,0 182 - 0,0 0 1.015,2
01:04 17,2 14,8 16,5 86,0 2,8 188 - 0,0 0 1.015,2
01:03 17,2 14,8 16,5 86,0 2,7 196 - 0,0 0 1.015,2
01:02 17,2 14,8 16,5 86,0 2,8 201 - 0,0 0 1.015,1
01:01 17,2 14,8 16,6 86,0 2,9 206 - 0,0 0 1.015,1
01:00 17,2 14,9 16,6 86,0 2,8 195 - 0,0 0 1.015,2
 
00:59 17,2 14,9 16,6 86,0 2,8 201 - 0,0 0 1.015,2
00:58 17,2 14,9 16,6 86,0 2,8 220 - 0,0 0 1.015,2
00:57 17,2 14,8 16,6 85,7 2,7 201 - 0,0 0 1.015,2
00:56 17,3 14,8 16,6 85,5 2,6 205 - 0,0 0 1.015,2
00:55 17,3 15,0 16,7 86,0 2,5 199 - 0,0 0 1.015,2
00:54 17,3 15,0 16,7 86,0 2,4 211 - 0,0 0 1.015,2
00:53 17,4 15,0 16,7 86,0 2,5 189 - 0,0 0 1.015,2
00:52 17,4 15,0 16,8 86,0 2,4 190 - 0,0 0 1.015,2
00:51 17,4 15,0 16,8 86,0 2,3 215 - 0,0 0 1.015,2
00:50 17,4 15,1 16,8 86,0 2,1 209 - 0,0 0 1.015,2
00:49 17,4 15,1 16,8 86,0 2,1 182 - 0,0 0 1.015,2
00:48 17,4 15,1 16,8 86,0 2,2 207 - 0,0 0 1.015,2
00:47 17,5 15,1 16,8 86,0 2,3 224 - 0,0 0 1.015,2
00:46 17,5 15,1 16,8 86,0 2,4 180 - 0,0 0 1.015,2
00:45 17,5 15,1 16,8 85,7 2,6 186 - 0,0 0 1.015,3
00:44 17,5 15,0 16,7 85,0 2,6 188 - 0,0 0 1.015,2
00:43 17,5 15,0 16,8 85,0 2,5 209 - 0,0 0 1.015,2
00:42 17,5 15,1 16,9 85,8 2,5 222 - 0,0 0 1.015,2
00:41 17,6 15,2 16,9 86,0 2,5 215 - 0,0 0 1.015,2
00:40 17,6 15,2 16,9 86,0 2,5 201 - 0,0 0 1.015,2
00:39 17,5 15,2 16,9 86,0 2,6 201 - 0,0 0 1.015,2
00:38 17,6 15,2 16,9 86,0 2,7 210 - 0,0 0 1.015,2
00:37 17,5 15,2 16,9 86,0 3,0 224 - 0,0 0 1.015,2
00:36 17,5 15,2 16,9 86,0 3,0 216 - 0,0 0 1.015,2
00:35 17,5 15,2 16,9 86,0 3,0 196 - 0,0 0 1.015,2
00:34 17,5 15,2 16,9 86,0 3,0 209 - 0,0 0 1.015,2
00:33 17,5 15,1 16,9 86,0 3,1 206 - 0,0 0 1.015,2
00:32 17,5 15,1 16,9 86,0 3,3 190 - 0,0 0 1.015,2
00:31 17,5 15,1 16,9 86,0 3,4 209 - 0,0 0 1.015,2
00:30 17,5 15,1 16,9 86,0 3,4 221 - 0,0 0 1.015,2
00:29 17,5 15,1 16,9 86,0 3,2 201 - 0,0 0 1.015,2
00:28 17,5 15,1 16,9 86,0 3,2 205 - 0,0 0 1.015,2
00:27 17,5 15,1 16,9 86,0 3,3 211 - 0,0 0 1.015,2
00:26 17,5 15,1 16,9 86,0 3,2 233 - 0,0 0 1.015,2
00:25 17,5 15,0 16,8 85,3 3,0 228 - 0,0 0 1.015,2
00:24 17,6 15,0 16,8 85,0 3,0 209 - 0,0 0 1.015,2
00:23 17,5 15,0 16,8 85,0 3,0 209 - 0,0 0 1.015,2
00:22 17,6 15,0 16,8 85,0 2,8 205 - 0,0 0 1.015,2
00:21 17,6 15,1 16,8 85,0 2,7 184 - 0,0 0 1.015,2
00:20 17,6 15,1 16,9 85,0 2,7 195 - 0,0 0 1.015,2
00:19 17,6 15,1 16,9 85,0 2,6 210 - 0,0 0 1.015,2
00:18 17,7 15,1 16,9 85,0 2,6 207 - 0,0 0 1.015,2
00:17 17,7 15,1 16,9 85,0 2,7 184 - 0,0 0 1.015,1
00:16 17,7 15,2 16,9 85,0 2,9 200 - 0,0 0 1.015,1
00:15 17,8 15,2 17,0 85,0 2,9 202 - 0,0 0 1.015,1
00:14 17,8 15,2 17,0 85,0 2,7 211 - 0,0 0 1.015,1
00:13 17,8 15,3 17,1 85,0 2,5 200 - 0,0 0 1.015,1
00:12 17,8 15,3 17,1 85,0 2,3 234 - 0,0 0 1.015,1
00:11 17,9 15,4 17,2 85,0 2,2 223 - 0,0 0 1.015,1
00:10 18,0 15,4 17,3 85,0 2,3 199 - 0,0 0 1.015,2
00:09 18,1 15,5 17,3 85,0 2,5 206 - 0,0 0 1.015,1
00:08 18,1 15,6 17,4 85,0 2,5 205 - 0,0 0 1.015,1
00:07 18,2 15,6 17,4 85,0 2,5 203 - 0,0 0 1.015,1
00:06 18,3 15,7 17,5 85,0 2,5 209 - 0,0 0 1.015,1
00:05 18,3 15,7 17,6 85,0 2,5 219 - 0,0 0 1.015,1
00:04 18,3 15,8 17,6 85,0 2,5 207 - 0,0 0 1.015,1
00:03 18,4 15,8 17,6 85,0 2,8 214 - 0,0 0 1.015,1
00:02 18,4 15,9 17,7 85,0 3,8 236 - 0,0 0 1.015,1
00:01 18,4 15,9 17,7 85,0 4,6 227 - 0,0 0 1.015,1
00:00 18,4 15,9 17,7 85,0 4,8 227 - 3,8 0 1.015,0
 
23:59 18,4 15,9 17,7 85,0 5,0 222 - 3,8 0 1.015,0
23:58 18,4 15,8 17,7 85,0 5,4 238 - 3,8 0 1.015,0
23:57 18,4 15,8 17,7 85,0 5,7 240 - 3,8 0 1.015,0
23:56 18,4 15,8 17,7 85,0 5,6 242 - 3,8 0 1.015,0
23:55 18,4 15,8 17,6 85,0 5,6 249 - 3,8 0 1.015,0
23:54 18,3 15,8 17,6 85,0 5,5 231 - 3,8 0 1.015,0
23:53 18,3 15,8 17,6 85,0 5,6 269 - 3,8 0 1.015,0
23:52 18,3 15,8 17,6 85,0 5,7 247 - 3,8 0 1.015,0
23:51 18,4 15,8 17,6 85,0 5,9 245 - 3,8 0 1.015,0
23:50 18,4 15,8 17,7 85,0 5,6 240 - 3,8 0 1.015,0
23:49 18,4 15,8 17,7 85,0 5,3 211 - 3,8 0 1.014,9
23:48 18,4 15,8 17,7 85,0 5,1 233 - 3,8 0 1.014,9
23:47 18,4 15,8 17,7 85,0 5,1 240 - 3,8 0 1.015,0
23:46 18,4 15,8 17,7 85,0 5,3 251 - 3,8 0 1.014,9
23:45 18,4 15,8 17,7 85,0 5,4 244 - 3,8 0 1.014,9
23:44 18,4 15,8 17,7 85,0 5,4 237 - 3,8 0 1.014,9
23:43 18,4 15,8 17,7 85,0 5,3 246 - 3,8 0 1.014,9
23:42 18,4 15,8 17,7 85,0 4,9 240 - 3,8 0 1.014,9
23:41 18,4 15,8 17,7 85,0 5,0 191 - 3,8 0 1.014,9
23:40 18,4 15,8 17,6 85,0 5,3 241 - 3,8 0 1.014,9
23:39 18,4 15,8 17,6 85,0 5,7 214 - 3,8 0 1.014,9
23:38 18,4 15,8 17,7 85,0 5,8 235 - 3,8 0 1.014,8
23:37 18,4 15,8 17,7 85,0 5,8 240 - 3,8 0 1.014,8
23:36 18,4 15,8 17,7 85,0 5,8 232 - 3,8 0 1.014,8
23:35 18,4 15,8 17,7 85,0 5,8 251 - 3,8 0 1.014,8
23:34 18,4 15,8 17,7 85,0 6,0 244 - 3,8 0 1.014,8
23:33 18,4 15,8 17,7 85,0 5,9 236 - 3,8 0 1.014,8
23:32 18,3 15,6 17,5 84,3 6,0 265 - 3,8 0 1.014,8
23:31 18,3 15,8 17,6 84,9 6,3 280 - 3,8 0 1.014,8
23:30 18,3 15,8 17,6 85,0 6,3 255 - 3,8 0 1.014,7
23:29 18,3 15,8 17,6 85,0 6,1 249 - 3,8 0 1.014,8
23:28 18,4 15,8 17,6 85,0 5,7 266 - 3,8 0 1.014,8
23:27 18,4 15,8 17,6 85,0 5,4 283 - 3,8 0 1.014,8
23:26 18,3 15,8 17,6 85,0 5,1 232 - 3,8 0 1.014,7
23:25 18,3 15,8 17,6 85,0 5,4 288 - 3,8 0 1.014,7
23:24 18,3 15,7 17,6 84,8 5,6 260 - 3,8 0 1.014,8
23:23 18,3 15,6 17,5 84,4 5,7 228 - 3,8 0 1.014,7
23:22 18,3 15,8 17,6 85,0 6,2 198 - 3,8 0 1.014,8
23:21 18,3 15,8 17,6 85,0 5,9 203 - 3,8 0 1.014,7
23:20 18,3 15,7 17,6 85,0 5,8 249 - 3,8 0 1.014,7
23:19 18,3 15,7 17,6 85,0 6,2 215 - 3,8 0 1.014,7
23:18 18,3 15,7 17,6 85,0 6,2 219 - 3,8 0 1.014,7
23:17 18,3 15,7 17,6 85,0 6,1 258 - 3,8 0 1.014,7
23:16 18,3 15,7 17,5 85,0 6,2 247 - 3,8 0 1.014,7
23:15 18,3 15,7 17,5 85,0 6,0 259 - 3,8 0 1.014,7
23:14 18,2 15,7 17,5 85,0 5,9 222 - 3,8 0 1.014,7
23:13 18,2 15,7 17,5 84,9 5,9 261 - 3,8 0 1.014,6
23:12 18,2 15,5 17,4 84,0 6,0 223 - 3,8 0 1.014,6
23:11 18,3 15,6 17,5 84,4 6,0 249 - 3,8 0 1.014,6
23:10 18,3 15,7 17,6 85,0 5,9 261 - 3,8 0 1.014,6
23:09 18,3 15,6 17,5 84,3 5,5 234 - 3,8 0 1.014,6
23:08 18,3 15,7 17,6 84,9 5,3 210 - 3,8 0 1.014,6
23:07 18,3 15,6 17,4 84,1 5,5 271 - 3,8 0 1.014,6
23:06 18,3 15,6 17,5 84,0 6,1 271 - 3,8 0 1.014,6
23:05 18,3 15,6 17,5 84,0 6,1 242 - 3,8 0 1.014,5
23:04 18,3 15,6 17,5 84,0 6,0 271 - 3,8 0 1.014,5
23:03 18,4 15,6 17,5 84,0 6,0 251 - 3,8 0 1.014,5
23:02 18,3 15,6 17,5 84,0 6,3 234 - 3,8 0 1.014,5
23:01 18,3 15,6 17,4 84,0 6,6 238 - 3,8 0 1.014,5
23:00 18,3 15,5 17,4 84,0 6,7 222 - 3,8 0 1.014,5
 
22:59 18,3 15,6 17,5 84,4 6,8 263 - 3,8 0 1.014,5
22:58 18,3 15,7 17,5 85,0 6,7 243 - 3,8 0 1.014,4
22:57 18,3 15,7 17,6 85,0 6,4 236 - 3,8 0 1.014,5
22:56 18,3 15,8 17,6 85,0 6,2 252 - 3,8 0 1.014,5
22:55 18,3 15,8 17,6 85,0 5,9 249 - 3,8 0 1.014,5
22:54 18,4 15,8 17,7 85,0 5,7 222 - 3,8 0 1.014,5
22:53 18,4 15,8 17,7 85,0 5,3 267 - 3,8 0 1.014,5
22:52 18,4 15,8 17,7 85,0 5,3 215 - 3,8 0 1.014,5
22:51 18,4 15,8 17,7 85,0 5,5 234 - 3,8 0 1.014,5
22:50 18,4 15,8 17,6 84,9 5,9 242 - 3,8 0 1.014,5
22:49 18,4 15,7 17,6 84,6 6,2 238 - 3,8 0 1.014,4
22:48 18,4 15,8 17,7 85,0 6,3 209 - 3,8 0 1.014,4
22:47 18,4 15,8 17,6 85,0 6,3 259 - 3,8 0 1.014,4
22:46 18,4 15,8 17,7 85,0 6,7 242 - 3,8 0 1.014,4
22:45 18,4 15,8 17,7 85,0 6,8 240 - 3,8 0 1.014,4
22:44 18,4 15,8 17,7 85,0 7,0 255 - 3,8 0 1.014,4
22:43 18,4 15,8 17,6 85,0 7,2 244 - 3,8 0 1.014,4
22:42 18,4 15,8 17,7 85,0 7,4 253 - 3,8 0 1.014,4
22:41 18,4 15,8 17,7 85,0 7,2 252 - 3,8 0 1.014,4
22:40 18,4 15,8 17,6 85,0 6,9 274 - 3,8 0 1.014,4
22:39 18,4 15,8 17,6 85,0 6,9 228 - 3,8 0 1.014,3
22:38 18,3 15,8 17,6 84,9 7,2 250 - 3,8 0 1.014,3
22:37 18,3 15,6 17,5 84,0 7,7 269 - 3,8 0 1.014,3
22:36 18,3 15,6 17,5 84,0 7,9 257 - 3,8 0 1.014,3
22:35 18,4 15,6 17,5 84,0 7,9 266 - 3,8 0 1.014,3
22:34 18,4 15,8 17,6 84,7 7,5 256 - 3,8 0 1.014,3
22:33 18,4 15,7 17,5 84,1 7,2 232 - 3,8 0 1.014,3
22:32 18,4 15,7 17,5 84,0 7,5 213 - 3,8 0 1.014,3
22:31 18,4 15,7 17,5 84,0 7,4 227 - 3,8 0 1.014,2
22:30 18,4 15,7 17,5 84,0 7,9 261 - 3,8 0 1.014,2
22:29 18,4 15,7 17,5 84,0 7,8 246 - 3,8 0 1.014,2
22:28 18,4 15,7 17,6 84,0 7,5 284 - 3,8 0 1.014,3
22:27 18,4 15,7 17,5 84,0 7,5 250 - 3,8 0 1.014,2
22:26 18,4 15,7 17,5 84,0 8,3 238 - 3,8 0 1.014,2
22:25 18,4 15,7 17,5 84,0 8,5 265 - 3,8 0 1.014,2
22:24 18,4 15,7 17,5 84,0 8,5 260 - 3,8 0 1.014,2
22:23 18,4 15,7 17,5 84,0 8,5 262 - 3,8 0 1.014,1
22:22 18,4 15,7 17,5 84,0 8,7 253 - 3,8 0 1.014,1
22:21 18,4 15,7 17,6 84,0 8,5 277 - 3,8 0 1.014,1
22:20 18,4 15,7 17,6 84,0 8,2 247 - 3,8 0 1.014,1
22:19 18,4 15,7 17,6 84,0 8,4 278 - 3,8 0 1.014,1
22:18 18,4 15,7 17,6 84,0 8,9 254 - 3,8 0 1.014,1
22:17 18,4 15,7 17,6 84,0 9,3 270 - 3,8 0 1.014,1
22:16 18,4 15,7 17,6 84,0 9,3 276 - 3,8 0 1.014,1
22:15 18,4 15,7 17,6 84,0 9,5 246 - 3,8 0 1.014,0
22:14 18,4 15,7 17,6 84,0 10,0 263 - 3,8 0 1.014,0
22:13 18,4 15,6 17,5 83,7 10,0 260 - 3,8 0 1.014,0
22:12 18,4 15,6 17,5 83,5 10,0 240 - 3,8 0 1.014,0
22:11 18,4 15,6 17,5 83,4 10,2 261 - 3,8 0 1.014,0
22:10 18,5 15,7 17,6 83,8 10,1 263 - 3,8 0 1.013,9
22:09 18,4 15,7 17,6 84,0 9,8 240 - 3,8 0 1.013,9
22:08 18,4 15,7 17,6 84,0 9,9 247 - 3,8 0 1.013,9
22:07 18,4 15,7 17,6 84,0 10,2 255 - 3,8 0 1.014,0
22:06 18,4 15,7 17,6 84,0 9,9 252 - 3,8 0 1.014,0
22:05 18,5 15,7 17,6 84,0 9,5 257 - 3,8 0 1.014,0
22:04 18,5 15,7 17,6 84,0 9,5 259 - 3,8 0 1.013,9
22:03 18,5 15,8 17,6 84,0 9,8 259 - 3,8 0 1.013,9
22:02 18,5 15,7 17,6 84,0 9,7 255 - 3,8 0 1.013,9
22:01 18,5 15,8 17,6 84,0 9,0 277 - 3,8 0 1.013,9
22:00 18,5 15,8 17,6 84,0 9,1 222 - 3,8 0 1.013,9
 
21:59 18,5 15,8 17,7 84,0 9,8 249 - 3,8 0 1.013,9
21:58 18,5 15,8 17,7 84,0 9,6 229 - 3,8 0 1.013,8
21:57 18,5 15,7 17,6 83,9 9,7 265 - 3,8 0 1.013,8
21:56 18,5 15,6 17,5 83,0 10,8 268 - 3,8 0 1.013,8
21:55 18,5 15,7 17,6 83,4 11,0 260 - 3,8 0 1.013,7
21:54 18,5 15,8 17,7 84,0 10,9 252 - 3,8 0 1.013,8
21:53 18,5 15,6 17,5 83,3 10,7 266 - 3,8 0 1.013,7
21:52 18,5 15,6 17,5 83,0 10,4 248 - 3,8 0 1.013,7
21:51 18,5 15,8 17,6 83,8 10,8 222 - 3,8 0 1.013,7
21:50 18,6 15,7 17,6 83,3 10,5 224 - 3,8 0 1.013,6
21:49 18,5 15,8 17,7 84,0 10,5 269 - 3,8 0 1.013,6
21:48 18,5 15,7 17,6 83,5 11,0 235 - 3,8 0 1.013,6
21:47 18,5 15,6 17,5 83,0 11,5 239 - 3,8 0 1.013,5
21:46 18,5 15,8 17,6 83,9 11,2 260 - 3,8 0 1.013,5
21:45 18,5 15,8 17,7 84,0 10,6 233 - 3,8 0 1.013,5
21:44 18,5 15,8 17,7 84,0 10,3 260 - 3,8 0 1.013,5
21:43 18,5 15,7 17,6 83,6 10,7 260 - 3,8 0 1.013,5
21:42 18,5 15,7 17,6 83,6 10,8 245 - 3,8 0 1.013,5
21:41 18,5 15,8 17,6 84,0 10,8 249 - 3,8 0 1.013,5
21:40 18,5 15,6 17,5 83,1 10,5 265 - 3,8 0 1.013,4
21:39 18,5 15,6 17,5 83,0 9,5 236 - 3,8 0 1.013,4
21:38 18,5 15,6 17,5 83,0 8,7 306 - 3,8 0 1.013,4
21:37 18,5 15,6 17,5 83,0 8,8 232 - 3,8 0 1.013,4
21:36 18,5 15,6 17,5 83,0 9,2 253 - 3,8 0 1.013,4
21:35 18,5 15,6 17,5 83,0 8,8 192 12,1 3,8 0 1.013,4
21:34 18,5 15,6 17,5 83,0 9,2 263 - 3,8 0 1.013,4
21:33 18,5 15,6 17,5 83,0 10,6 255 - 3,8 0 1.013,4
21:32 18,5 15,6 17,5 83,0 10,1 263 - 3,8 0 1.013,4
21:31 18,5 15,6 17,5 83,0 9,7 231 - 3,8 0 1.013,4
21:30 18,5 15,6 17,5 83,0 9,6 236 - 3,8 0 1.013,4
21:29 18,5 15,6 17,5 83,0 9,5 257 - 3,8 0 1.013,4
21:28 18,5 15,6 17,5 83,0 9,9 260 - 3,8 0 1.013,4
21:27 18,5 15,6 17,5 83,2 10,3 254 - 3,8 0 1.013,3
21:26 18,5 15,8 17,6 84,0 10,4 252 - 3,8 0 1.013,3
21:25 18,6 15,8 17,7 84,0 10,2 258 - 3,8 0 1.013,3
21:24 18,6 15,9 17,7 84,0 9,5 268 - 3,8 0 1.013,3
21:23 18,6 15,9 17,8 84,0 8,9 231 - 3,8 0 1.013,3
21:22 18,6 15,9 17,8 84,0 9,0 273 - 3,8 0 1.013,3
21:21 18,6 15,8 17,7 83,8 9,7 265 - 3,8 0 1.013,3
21:20 18,5 15,6 17,5 83,0 10,5 260 - 3,8 0 1.013,2
21:19 18,6 15,6 17,6 83,0 10,7 269 14,3 3,8 0 1.013,2
21:18 18,5 15,6 17,5 83,0 10,6 240 - 3,8 0 1.013,2
21:17 18,5 15,6 17,5 83,0 10,1 244 - 3,8 0 1.013,2
21:16 18,5 15,6 17,5 83,0 9,4 257 - 3,8 0 1.013,2
21:15 18,5 15,6 17,5 83,0 9,3 292 - 3,8 0 1.013,2
21:14 18,5 15,6 17,5 83,0 9,6 239 - 3,8 0 1.013,1
21:13 18,5 15,7 17,6 83,6 10,0 241 - 3,8 0 1.013,1
21:12 18,5 15,6 17,5 83,3 9,5 212 - 3,8 0 1.013,2
21:11 18,5 15,5 17,5 83,0 9,5 242 - 3,8 0 1.013,2
21:10 18,5 15,8 17,6 84,0 10,0 257 - 3,8 0 1.013,3
21:09 18,5 15,7 17,6 83,8 9,7 271 - 3,8 0 1.013,3
21:08 18,4 15,6 17,5 83,4 9,5 251 - 3,8 0 1.013,2
21:07 18,4 15,6 17,5 83,5 10,0 265 - 3,8 0 1.013,1
21:06 18,4 15,7 17,6 83,9 10,1 256 - 3,8 0 1.013,1
21:05 18,4 15,7 17,6 84,0 9,2 255 - 3,8 0 1.013,1
21:04 18,4 15,5 17,4 83,1 9,3 215 - 3,8 0 1.013,1
21:03 18,4 15,5 17,4 83,0 10,0 228 - 3,8 0 1.013,0
21:02 18,5 15,6 17,5 83,5 8,8 226 - 3,8 0 1.013,0
21:01 18,5 15,7 17,6 84,0 9,1 292 - 3,8 0 1.013,0
21:00 18,4 15,6 17,5 83,3 10,2 263 - 3,8 0 1.013,0
 
20:59 18,4 15,5 17,4 83,0 10,8 257 - 3,8 0 1.013,0
20:58 18,4 15,5 17,4 83,0 11,0 251 - 3,8 0 1.012,9
20:57 18,4 15,5 17,4 83,0 11,1 261 - 3,8 0 1.012,9
20:56 18,4 15,5 17,4 83,0 11,2 272 - 3,8 0 1.012,9
20:55 18,4 15,5 17,4 83,0 11,4 264 - 3,8 0 1.012,9
20:54 18,4 15,5 17,4 83,0 10,9 284 - 3,8 0 1.012,9
20:53 18,4 15,5 17,4 83,0 10,8 236 - 3,8 0 1.012,9
20:52 18,4 15,5 17,4 83,0 10,9 247 - 3,8 0 1.012,9
20:51 18,4 15,5 17,4 83,0 9,8 242 - 3,8 0 1.012,9
20:50 18,4 15,6 17,5 83,5 8,2 197 12,1 3,8 0 1.012,8
20:49 18,4 15,6 17,5 83,4 8,6 289 12,1 3,8 0 1.012,8
20:48 18,4 15,5 17,4 83,0 9,0 266 12,5 3,8 0 1.012,7
20:47 18,4 15,5 17,4 83,0 9,6 200 13,0 3,8 0 1.012,7
20:46 18,4 15,5 17,4 83,0 10,2 259 - 3,8 0 1.012,7
20:45 18,4 15,5 17,4 83,0 11,2 252 - 3,8 0 1.012,6
20:44 18,4 15,4 17,4 83,0 11,3 237 - 3,8 0 1.012,6
20:43 18,4 15,5 17,4 83,0 11,7 268 - 3,8 0 1.012,6
20:42 18,4 15,6 17,5 83,8 11,9 249 - 3,8 0 1.012,6
20:41 18,4 15,6 17,5 83,9 11,2 259 - 3,8 0 1.012,6
20:40 18,4 15,5 17,4 83,3 10,5 251 - 3,8 0 1.012,6
20:39 18,4 15,6 17,5 83,6 10,7 259 - 3,8 0 1.012,6
20:38 18,4 15,6 17,5 83,5 11,1 246 - 3,8 0 1.012,6
20:37 18,5 15,7 17,6 84,0 10,5 245 - 3,8 0 1.012,6
20:36 18,4 15,7 17,6 84,0 10,2 247 - 3,8 0 1.012,6
20:35 18,4 15,5 17,4 83,1 10,8 249 - 3,8 0 1.012,5
20:34 18,4 15,5 17,4 83,0 11,8 275 - 3,8 0 1.012,4
20:33 18,4 15,5 17,4 83,0 11,8 251 - 3,8 0 1.012,4
20:32 18,4 15,5 17,4 83,0 11,6 286 - 3,8 0 1.012,4
20:31 18,4 15,6 17,5 83,7 11,2 265 - 3,8 0 1.012,4
20:30 18,4 15,7 17,5 84,0 10,8 242 - 3,8 0 1.012,4
20:29 18,4 15,7 17,5 84,0 10,3 262 - 3,8 0 1.012,4
20:28 18,4 15,6 17,5 83,8 10,6 265 - 3,8 3 1.012,3
20:27 18,3 15,5 17,4 83,4 11,2 283 - 3,8 5 1.012,3
20:26 18,3 15,6 17,5 84,0 10,9 257 - 3,8 5 1.012,3
20:25 18,3 15,4 17,3 83,3 11,2 227 - 3,8 5 1.012,3
20:24 18,3 15,5 17,4 83,9 11,4 271 - 3,8 5 1.012,3
20:23 18,3 15,5 17,4 84,0 12,0 268 - 3,8 5 1.012,2
20:22 18,2 15,5 17,3 84,0 11,4 267 - 3,8 5 1.012,3
20:21 18,2 15,5 17,3 84,0 11,2 249 - 3,8 5 1.012,3
20:20 18,2 15,5 17,3 84,0 10,3 249 - 3,8 7 1.012,3
20:19 18,2 15,4 17,3 84,0 9,9 203 - 3,8 7 1.012,2
20:18 18,2 15,5 17,3 84,0 9,9 243 - 3,8 7 1.012,2
20:17 18,2 15,5 17,4 84,0 10,5 238 - 3,8 7 1.012,3
20:16 18,3 15,5 17,4 84,0 10,5 231 - 3,8 7 1.012,3
20:15 18,3 15,5 17,4 84,0 10,7 259 - 3,8 9 1.012,2
20:14 18,3 15,4 17,3 83,4 11,3 249 - 3,8 11 1.012,1
20:13 18,3 15,5 17,4 83,8 12,0 255 - 3,8 11 1.012,1
20:12 18,3 15,6 17,5 84,0 12,3 247 - 3,8 11 1.012,1
20:11 18,4 15,6 17,5 84,0 12,7 277 - 3,8 12 1.012,1
20:10 18,3 15,6 17,5 84,0 11,7 256 15,2 3,8 11 1.012,0
20:09 18,3 15,6 17,4 84,0 11,3 204 - 3,8 11 1.012,1
20:08 18,3 15,5 17,4 84,0 11,5 271 - 3,8 11 1.012,0
20:07 18,2 15,6 17,5 84,8 12,4 245 - 3,8 11 1.012,0
20:06 18,2 15,7 17,5 85,0 12,1 232 - 3,8 13 1.012,0
20:05 18,2 15,6 17,4 84,8 11,6 230 - 3,8 14 1.012,1
20:04 18,2 15,5 17,3 84,4 11,9 252 - 3,8 15 1.012,0
20:03 18,2 15,6 17,4 85,0 12,2 246 - 3,8 16 1.012,0
20:02 18,2 15,6 17,4 85,0 11,9 230 - 3,8 16 1.012,0
20:01 18,1 15,6 17,4 85,0 11,7 255 - 3,8 16 1.012,0
20:00 18,1 15,5 17,4 85,0 11,6 238 - 3,8 17 1.012,0
 
19:59 18,1 15,5 17,3 85,0 11,5 248 - 3,8 19 1.012,0
19:58 18,1 15,5 17,3 85,0 11,5 252 - 3,8 20 1.011,9
19:57 18,1 15,5 17,3 85,0 11,0 240 - 3,8 23 1.011,9
19:56 18,0 15,5 17,3 85,0 11,8 205 - 3,8 25 1.011,8
19:55 18,0 15,5 17,3 85,0 11,1 222 14,3 3,8 27 1.011,8
19:54 18,0 15,5 17,3 85,0 11,4 271 - 3,8 29 1.011,8
19:53 18,0 15,4 17,3 85,0 11,4 255 - 3,8 30 1.011,8
19:52 18,0 15,4 17,2 84,6 9,7 289 13,4 3,8 32 1.011,8
19:51 18,0 15,4 17,2 84,6 9,6 205 14,3 3,8 35 1.011,7
19:50 18,1 15,5 17,3 85,0 10,8 197 14,8 3,8 39 1.011,8
19:49 18,0 15,5 17,3 85,0 10,4 263 - 3,8 40 1.011,8
19:48 18,0 15,3 17,1 84,1 11,9 261 - 3,8 39 1.011,8
19:47 17,9 15,2 17,1 84,0 12,0 260 - 3,8 45 1.011,7
19:46 17,9 15,2 17,1 84,0 11,8 234 - 3,8 51 1.011,7
19:45 18,0 15,2 17,1 84,0 11,4 212 - 3,8 49 1.011,7
19:44 18,0 15,2 17,1 84,0 11,1 255 - 3,8 49 1.011,6
19:43 18,0 15,2 17,1 84,0 12,0 258 - 3,8 42 1.011,6
19:42 18,0 15,3 17,1 84,0 11,7 276 - 3,8 33 1.011,6
19:41 18,1 15,3 17,2 83,7 11,8 227 - 3,8 33 1.011,5
19:40 18,2 15,2 17,1 83,0 12,4 252 - 3,8 33 1.011,5
19:39 18,3 15,4 17,3 83,6 11,5 233 - 3,8 33 1.011,5
19:38 18,3 15,5 17,4 83,3 11,5 206 - 3,8 41 1.011,5
19:37 18,3 15,4 17,3 83,0 11,0 208 14,3 3,8 49 1.011,4
19:36 18,4 15,5 17,4 83,0 11,3 265 16,5 3,8 56 1.011,4
19:35 18,4 15,5 17,4 83,0 11,5 212 - 3,8 55 1.011,4
19:34 18,4 15,4 17,4 82,6 11,7 199 - 3,8 52 1.011,3
19:33 18,5 15,3 17,3 82,0 12,7 267 16,5 3,8 53 1.011,3
19:32 18,5 15,5 17,5 82,8 14,6 261 - 3,8 50 1.011,4
19:31 18,5 15,4 17,4 82,1 14,6 259 - 3,8 48 1.011,3
19:30 18,5 15,4 17,4 82,2 15,0 247 - 3,8 51 1.011,2
19:29 18,5 15,6 17,5 83,0 14,8 263 - 3,8 54 1.011,3
19:28 18,5 15,6 17,5 83,0 14,0 255 - 3,8 54 1.011,4
19:27 18,5 15,5 17,4 82,4 13,6 272 - 3,8 53 1.011,3
19:26 18,5 15,4 17,4 82,0 14,0 260 - 3,8 49 1.011,1
19:25 18,5 15,4 17,4 82,0 14,2 279 - 3,8 46 1.011,2
19:24 18,5 15,4 17,4 82,2 12,9 267 - 3,8 43 1.011,2
19:23 18,5 15,5 17,5 82,7 12,8 221 - 3,8 43 1.011,2
19:22 18,5 15,4 17,4 82,0 12,9 249 - 3,8 44 1.011,3
19:21 18,5 15,3 17,3 81,4 13,8 261 - 3,8 44 1.011,2
19:20 18,5 15,2 17,2 81,0 14,5 265 - 3,8 47 1.011,2
19:19 18,5 15,4 17,3 81,9 14,3 253 - 3,8 49 1.011,2
19:18 18,5 15,2 17,2 81,2 13,8 272 - 3,8 50 1.011,2
19:17 18,5 15,4 17,3 82,0 13,7 259 - 3,8 79 1.011,1
19:16 18,5 15,4 17,4 82,0 13,7 285 - 3,8 81 1.011,1
19:15 18,5 15,4 17,4 82,0 12,6 255 15,6 3,8 72 1.011,1
19:14 18,6 15,6 17,5 82,7 12,4 217 - 3,8 89 1.011,1
19:13 18,6 15,4 17,4 82,0 11,8 271 - 3,8 131 1.011,1
19:12 18,5 15,4 17,3 81,8 13,5 282 - 3,8 137 1.011,0
19:11 18,5 15,3 17,3 81,4 12,6 263 17,0 3,8 141 1.011,0
19:10 18,5 15,4 17,4 82,0 12,7 209 - 3,8 96 1.011,0
19:09 18,5 15,3 17,2 81,3 12,6 269 15,6 3,8 88 1.011,0
19:08 18,5 15,2 17,2 81,0 13,6 222 - 3,8 92 1.010,9
19:07 18,5 15,2 17,2 81,0 15,0 265 - 3,8 101 1.010,9
19:06 18,5 15,2 17,2 81,0 16,5 269 - 3,8 116 1.010,8
19:05 18,5 15,2 17,2 81,0 16,2 261 - 3,8 164 1.010,8
19:04 18,4 15,2 17,1 81,0 16,0 263 - 3,8 176 1.010,8
19:03 18,4 15,1 17,1 81,0 15,3 257 - 3,8 176 1.010,8
19:02 18,4 15,1 17,1 81,0 15,4 228 - 3,8 180 1.010,8
19:01 18,3 15,1 17,0 81,2 16,1 260 - 3,8 187 1.010,7
19:00 18,3 15,2 17,1 82,3 16,8 259 - 3,8 193 1.010,8
 
18:59 18,1 15,2 17,1 83,0 16,0 255 - 3,8 194 1.010,9
18:58 18,0 15,1 17,0 83,0 15,0 260 - 3,8 182 1.010,8
18:57 17,8 15,0 16,9 83,7 14,7 245 - 3,8 158 1.010,8
18:56 17,7 15,2 17,0 84,9 14,4 248 - 3,8 211 1.010,9
18:55 17,7 15,3 17,1 85,8 13,7 240 - 3,8 197 1.010,9
18:54 17,7 15,1 16,9 84,4 13,5 272 - 3,8 174 1.010,9
18:53 17,8 15,0 16,9 83,5 14,1 264 - 3,8 250 1.010,8
18:52 18,1 15,3 17,1 83,4 15,8 238 - 3,8 305 1.010,6
18:51 18,3 15,4 17,3 83,0 16,8 252 21,0 3,8 235 1.010,6
18:50 18,4 15,3 17,3 82,1 16,5 253 - 3,8 151 1.010,6
18:49 18,6 15,4 17,4 81,8 15,7 276 18,8 3,8 114 1.010,6
18:48 18,7 15,5 17,4 81,5 15,4 274 - 3,8 96 1.010,6
18:47 18,7 15,6 17,6 82,0 14,9 253 18,3 3,8 74 1.010,6
18:46 18,7 15,6 17,6 82,0 14,2 251 - 3,8 58 1.010,7
18:45 18,7 15,4 17,4 81,3 13,3 252 - 3,8 53 1.010,8
18:44 18,7 15,4 17,4 81,0 12,8 255 - 3,8 44 1.010,8
18:43 18,7 15,4 17,4 81,0 11,6 274 14,8 3,8 29 1.010,7
18:42 18,7 15,4 17,4 81,0 10,3 217 13,9 3,8 27 1.010,8
18:41 18,7 15,4 17,4 81,0 11,0 195 - 3,8 31 1.010,8
18:40 18,7 15,4 17,4 81,0 10,8 238 - 3,8 27 1.010,8
18:39 18,7 15,4 17,5 81,0 11,2 226 - 3,8 22 1.010,8
18:38 18,8 15,3 17,3 80,1 11,0 236 - 3,8 25 1.010,7
18:37 18,7 15,2 17,3 80,0 11,4 254 - 3,8 31 1.010,7
18:36 18,7 15,3 17,3 80,0 11,7 258 - 3,8 38 1.010,7
18:35 18,7 15,3 17,3 80,0 11,7 263 - 3,8 46 1.010,6
18:34 18,8 15,3 17,3 80,0 11,4 282 15,2 3,8 57 1.010,6
18:33 18,7 15,1 17,2 79,2 11,7 234 - 3,8 68 1.010,6
18:32 18,7 15,0 17,1 79,0 12,2 257 - 3,8 85 1.010,6
18:31 18,7 15,1 17,2 79,0 12,1 234 - 3,8 140 1.010,6
18:30 18,8 15,1 17,2 79,0 11,7 217 - 3,8 174 1.010,6
18:29 18,8 15,1 17,2 79,0 11,1 256 - 3,8 92 1.010,6
18:28 18,8 15,0 17,1 78,3 10,9 222 - 3,8 216 1.010,6
18:27 18,8 14,9 17,1 78,0 11,5 242 - 3,8 223 1.010,5
18:26 18,8 15,1 17,2 79,0 12,0 226 - 3,8 251 1.010,5
18:25 18,8 15,1 17,2 79,0 12,3 265 15,6 3,8 285 1.010,4
18:24 18,7 15,1 17,1 79,0 10,8 275 13,9 3,8 285 1.010,4
18:23 18,7 15,0 17,1 79,0 10,7 197 14,3 3,8 266 1.010,4
18:22 18,7 15,0 17,1 79,0 11,9 249 - 3,8 173 1.010,4
18:21 18,7 15,0 17,1 79,0 13,0 253 - 3,8 148 1.010,4
18:20 18,7 15,3 17,3 80,1 12,4 244 - 3,8 135 1.010,4
18:19 18,7 15,4 17,4 80,7 11,9 256 - 3,8 126 1.010,4
18:18 18,7 15,2 17,3 80,0 11,8 236 - 3,8 127 1.010,4
18:17 18,7 15,1 17,2 79,4 11,9 263 - 3,8 134 1.010,3
18:16 18,7 15,2 17,2 79,7 12,0 244 - 3,8 156 1.010,4
18:15 18,7 15,1 17,2 79,2 12,4 250 - 3,8 180 1.010,3
18:14 18,7 15,0 17,1 79,0 11,9 256 - 3,8 180 1.010,2
18:13 18,7 15,1 17,2 79,0 11,8 205 - 3,8 167 1.010,2
18:12 18,8 15,1 17,2 79,0 12,4 204 - 3,8 287 1.010,3
18:11 18,8 15,1 17,2 79,0 11,3 234 14,8 3,8 322 1.010,2
18:10 18,8 15,1 17,2 79,0 12,7 282 16,1 3,8 335 1.010,2
18:09 18,8 15,3 17,3 79,9 13,4 254 - 3,8 379 1.010,2
18:08 18,7 15,1 17,2 79,0 13,5 259 - 3,8 376 1.010,1
18:07 18,7 15,0 17,1 79,0 13,4 279 - 3,8 339 1.010,1
18:06 18,7 15,1 17,2 79,5 8,8 303 15,6 3,8 180 1.010,1
18:05 18,7 15,2 17,3 80,0 6,9 176 15,6 3,8 142 1.010,2
18:04 18,7 15,1 17,2 79,3 9,1 278 13,0 3,8 128 1.010,3
18:03 18,7 15,0 17,1 79,0 12,0 242 - 3,8 129 1.010,1
18:02 18,7 15,0 17,1 79,0 12,7 251 - 3,8 137 1.010,2
18:01 18,7 15,1 17,2 79,4 12,6 261 - 3,8 135 1.010,3
18:00 18,7 15,2 17,3 80,0 11,9 249 - 3,8 158 1.010,3
 
17:59 18,7 15,2 17,2 80,0 11,4 236 - 3,8 305 1.010,3
17:58 18,7 15,2 17,2 80,0 11,0 268 - 3,8 257 1.010,3
17:57 18,6 15,1 17,2 80,0 11,5 271 - 3,8 125 1.010,2
17:56 18,5 15,0 17,1 80,0 11,4 253 - 3,8 116 1.010,2
17:55 18,5 15,0 17,1 80,0 11,9 218 - 3,8 109 1.010,3
17:54 18,5 15,0 17,0 80,0 11,1 251 14,8 3,8 106 1.010,3
17:53 18,5 15,0 17,0 80,0 11,0 278 - 3,8 110 1.010,2
17:52 18,4 15,1 17,1 80,8 10,7 249 - 3,8 118 1.010,2
17:51 18,4 15,1 17,1 81,0 10,8 242 - 3,8 141 1.010,2
17:50 18,4 15,2 17,1 81,3 10,2 230 - 3,8 211 1.010,2
17:49 18,4 15,3 17,2 82,0 9,3 205 12,5 3,8 208 1.010,3
17:48 18,4 15,3 17,2 82,0 8,3 172 - 3,8 202 1.010,3
17:47 18,4 15,3 17,2 82,0 8,1 252 11,6 3,8 249 1.010,3
17:46 18,3 15,2 17,2 82,0 9,6 251 - 3,8 267 1.010,3
17:45 18,3 15,2 17,2 82,0 9,4 242 - 3,8 283 1.010,3
17:44 18,3 15,1 17,1 81,8 9,7 251 - 3,8 246 1.010,3
17:43 18,2 14,9 16,9 81,0 10,8 263 - 3,8 193 1.010,2
17:42 18,2 15,0 17,0 81,6 11,2 250 - 3,8 125 1.010,2
17:41 18,2 15,0 17,0 81,3 10,9 265 - 3,8 110 1.010,2
17:40 18,2 14,9 16,9 81,0 8,5 246 12,1 3,8 106 1.010,1
17:39 18,3 15,1 17,1 82,0 8,0 168 13,0 3,8 103 1.010,2
17:38 18,3 15,2 17,1 82,0 7,8 266 12,5 3,8 98 1.010,2
17:37 18,3 15,2 17,1 82,0 10,6 276 - 3,8 95 1.010,1
17:36 18,3 15,0 17,0 81,4 10,7 232 - 3,8 97 1.010,1
17:35 18,3 15,0 17,0 81,0 11,8 219 - 3,8 98 1.010,0
17:34 18,3 15,0 17,0 81,0 12,4 258 - 3,8 103 1.010,0
17:33 18,3 14,9 16,9 80,1 13,3 259 - 3,8 114 1.010,0
17:32 18,4 14,9 17,0 80,0 13,9 258 - 3,8 126 1.009,9
17:31 18,5 15,0 17,1 80,0 14,0 261 - 3,8 147 1.009,9
17:30 18,5 15,1 17,1 80,0 13,3 279 - 3,8 184 1.009,9
17:29 18,5 15,0 17,1 80,0 12,1 251 - 3,8 109 1.010,0
17:28 18,5 15,0 17,1 80,0 11,8 244 - 3,8 99 1.010,0
17:27 18,5 15,1 17,1 80,0 11,5 241 - 3,8 82 1.010,0
17:26 18,5 15,0 17,1 80,0 11,3 251 - 3,8 87 1.010,0
17:25 18,6 15,2 17,2 80,5 10,8 238 - 3,8 96 1.010,0
17:24 18,6 15,2 17,2 80,4 10,6 259 - 3,8 107 1.010,0
17:23 18,6 15,1 17,1 80,0 11,0 264 - 3,8 112 1.010,0
17:22 18,5 14,9 17,0 79,1 11,9 250 - 3,8 120 1.009,9
17:21 18,6 14,9 17,0 79,2 12,4 254 - 3,8 132 1.009,9
17:20 18,6 15,1 17,1 79,7 12,3 255 - 3,8 150 1.009,9
17:19 18,6 14,8 16,9 78,5 11,9 234 - 3,8 175 1.009,9
17:18 18,6 14,7 16,9 78,0 12,2 237 - 3,8 234 1.009,9
17:17 18,6 14,7 16,9 78,0 12,1 231 15,2 3,8 424 1.009,9
17:16 18,6 14,7 16,9 78,0 12,1 262 - 3,8 424 1.009,9
17:15 18,5 14,7 16,8 78,0 12,1 237 - 3,8 474 1.009,8
17:14 18,5 14,7 16,8 78,0 11,9 243 - 3,8 335 1.009,8
17:13 18,5 14,6 16,8 78,0 12,2 281 - 3,8 258 1.009,7
17:12 18,4 14,7 16,8 78,7 12,8 257 - 3,8 259 1.009,7
17:11 18,4 14,6 16,7 78,2 12,8 259 16,1 3,8 265 1.009,7
17:10 18,4 14,6 16,7 78,0 12,5 251 - 3,8 260 1.009,8
17:09 18,4 14,6 16,7 78,3 11,8 267 - 3,8 252 1.009,8
17:08 18,4 14,7 16,8 79,0 11,7 232 - 3,8 245 1.009,8
17:07 18,4 14,7 16,8 79,0 11,5 241 - 3,8 248 1.009,8
17:06 18,3 14,5 16,7 78,3 12,2 271 - 3,8 240 1.009,7
17:05 18,3 14,4 16,6 78,0 13,0 259 - 3,8 209 1.009,7
17:04 18,3 14,6 16,7 79,1 13,0 263 - 3,8 175 1.009,8
17:03 18,3 14,8 16,8 79,8 12,7 271 - 3,8 137 1.009,8
17:02 18,2 14,6 16,7 79,0 12,5 271 - 3,8 109 1.009,8
17:01 18,2 14,7 16,7 79,6 12,0 256 - 3,8 91 1.009,8
17:00 18,2 14,7 16,8 80,0 11,8 236 - 3,8 78 1.009,8
 
16:59 18,2 14,7 16,7 80,0 12,1 264 - 3,8 73 1.009,7
16:58 18,1 14,8 16,8 80,8 12,7 239 - 3,8 72 1.009,7
16:57 18,1 14,6 16,6 80,0 12,9 253 - 3,8 70 1.009,6
16:56 18,1 14,7 16,7 80,5 11,9 233 - 3,8 67 1.009,7
16:55 18,1 15,0 16,9 82,2 10,8 274 - 3,8 67 1.009,8
16:54 18,0 15,0 16,9 82,3 10,1 241 - 3,8 69 1.009,9
16:53 18,0 14,9 16,9 82,0 9,9 260 - 3,8 72 1.009,8
16:52 18,0 14,9 16,8 82,0 9,7 261 - 3,8 82 1.009,8
16:51 17,9 14,8 16,8 82,0 9,6 249 - 3,8 88 1.009,8
16:50 17,9 14,8 16,7 82,0 9,9 232 - 3,8 92 1.009,8
16:49 17,9 14,8 16,7 82,0 9,2 212 - 3,8 95 1.009,8
16:48 17,8 14,7 16,7 82,0 9,4 283 - 3,8 97 1.009,8
16:47 17,8 14,7 16,7 82,0 10,6 247 - 3,8 99 1.009,7
16:46 17,8 14,7 16,6 82,0 10,2 265 - 3,8 100 1.009,7
16:45 17,8 14,8 16,7 82,4 9,9 212 13,0 3,8 100 1.009,7
16:44 17,8 14,9 16,8 83,0 10,3 208 - 3,8 98 1.009,7
16:43 17,9 14,9 16,8 83,0 10,0 241 - 3,8 97 1.009,7
16:42 17,9 15,0 16,9 83,0 10,4 234 - 3,8 94 1.009,7
16:41 17,9 15,0 16,9 83,0 10,5 252 - 3,8 91 1.009,7
16:40 17,9 15,0 16,9 83,0 10,1 253 - 3,8 93 1.009,7
16:39 17,9 14,9 16,8 82,7 9,5 264 - 3,8 97 1.009,7
16:38 17,9 14,9 16,8 82,5 9,1 280 12,5 3,8 101 1.009,6
16:37 17,9 14,9 16,8 82,4 10,0 212 13,9 3,8 105 1.009,6
16:36 17,8 14,7 16,7 82,0 10,7 253 - 3,8 108 1.009,6
16:35 17,8 14,7 16,6 82,0 10,6 264 - 3,8 115 1.009,6
16:34 17,8 14,8 16,7 82,3 10,5 226 - 3,8 128 1.009,5
16:33 17,8 14,9 16,8 82,7 10,9 243 - 3,8 138 1.009,5
16:32 17,8 14,8 16,7 82,5 10,6 263 - 3,8 139 1.009,5
16:31 17,8 14,9 16,8 83,0 10,1 214 - 3,8 133 1.009,5
16:30 17,8 14,7 16,6 82,2 10,3 250 - 3,8 127 1.009,5
16:29 17,8 14,8 16,7 82,9 10,5 249 - 3,8 123 1.009,5
16:28 17,7 14,6 16,6 82,0 10,9 284 - 3,8 121 1.009,4
16:27 17,7 14,6 16,6 82,0 11,4 265 - 3,8 121 1.009,4
16:26 17,7 14,6 16,6 82,0 11,8 257 - 3,8 123 1.009,4
16:25 17,7 14,6 16,6 82,0 11,6 255 - 3,8 125 1.009,4
16:24 17,7 14,6 16,6 82,0 10,8 250 - 3,8 125 1.009,4
16:23 17,7 14,6 16,6 82,0 10,3 234 - 3,8 123 1.009,4
16:22 17,7 14,6 16,5 82,0 10,4 262 - 3,8 118 1.009,4
16:21 17,7 14,6 16,5 82,0 10,8 258 - 3,8 114 1.009,4
16:20 17,7 14,6 16,5 82,0 10,4 257 - 3,8 111 1.009,4
16:19 17,7 14,5 16,4 81,3 10,5 222 - 3,8 111 1.009,4
16:18 17,7 14,4 16,4 81,0 11,0 242 - 3,8 115 1.009,3
16:17 17,7 14,4 16,4 81,0 11,0 216 - 3,8 122 1.009,3
16:16 17,7 14,4 16,4 81,0 11,2 215 - 3,8 132 1.009,3
16:15 17,7 14,4 16,3 80,6 11,5 239 - 3,8 145 1.009,2
16:14 17,7 14,3 16,3 80,0 12,4 253 - 3,8 160 1.009,1
16:13 17,8 14,3 16,4 80,0 12,4 247 - 3,8 177 1.009,2
16:12 17,9 14,6 16,6 80,9 11,5 228 15,6 3,8 194 1.009,2
16:11 17,9 14,4 16,4 80,1 10,4 205 - 3,8 218 1.009,1
16:10 17,8 14,4 16,4 80,0 10,4 257 13,9 3,8 235 1.009,1
16:09 17,9 14,4 16,4 80,0 11,5 238 - 3,8 237 1.009,0
16:08 17,8 14,3 16,3 79,4 11,9 237 - 3,8 233 1.009,0
16:07 17,9 14,4 16,4 79,8 11,8 228 - 3,8 194 1.009,1
16:06 17,8 14,2 16,3 79,1 11,6 241 - 3,8 173 1.009,2
16:05 17,8 14,2 16,3 79,0 11,8 250 - 3,8 162 1.009,1
16:04 17,9 14,2 16,3 79,0 12,5 231 - 3,8 157 1.009,0
16:03 18,0 14,4 16,5 79,5 12,6 236 - 3,8 139 1.009,0
16:02 18,0 14,4 16,5 79,4 12,4 243 - 3,8 128 1.008,9
16:01 18,0 14,4 16,4 79,0 12,8 254 - 3,8 131 1.008,8
16:00 18,1 14,4 16,5 79,1 13,7 236 - 3,8 142 1.008,7
 
15:59 18,1 14,7 16,7 80,6 14,3 231 - 3,8 149 1.008,7
15:58 18,1 14,6 16,6 80,0 13,3 226 - 3,8 158 1.008,7
15:57 18,0 14,5 16,6 80,0 12,3 260 - 3,8 202 1.008,7
15:56 18,0 14,5 16,6 80,0 12,6 255 - 3,8 208 1.008,7
15:55 17,9 14,6 16,6 80,8 12,9 273 - 3,8 194 1.008,8
15:54 17,9 14,6 16,6 81,0 12,6 259 - 3,8 177 1.008,7
15:53 17,9 14,6 16,6 81,0 12,3 245 - 3,8 163 1.008,7
15:52 17,9 14,6 16,6 81,0 11,8 263 - 3,8 160 1.008,7
15:51 17,8 14,5 16,5 81,0 11,4 230 - 3,8 156 1.008,6
15:50 17,8 14,6 16,6 81,7 11,3 274 14,3 3,8 149 1.008,7
15:49 17,7 14,6 16,6 82,0 11,6 252 - 3,8 146 1.008,7
15:48 17,7 14,5 16,4 81,2 11,7 251 - 3,8 149 1.008,6
15:47 17,7 14,6 16,5 82,0 11,3 244 - 3,8 158 1.008,5
15:46 17,7 14,5 16,4 81,6 11,1 279 - 3,8 167 1.008,6
15:45 17,6 14,4 16,3 81,0 11,4 255 - 3,8 172 1.008,6
15:44 17,6 14,5 16,4 81,7 11,3 260 - 3,8 171 1.008,5
15:43 17,6 14,4 16,4 81,2 10,9 250 - 3,8 163 1.008,5
15:42 17,6 14,3 16,3 81,0 10,4 261 - 3,8 147 1.008,5
15:41 17,6 14,4 16,3 81,0 9,7 274 13,0 3,8 126 1.008,5
15:40 17,7 14,4 16,4 81,0 10,3 211 13,9 3,8 105 1.008,4
15:39 17,7 14,4 16,4 81,0 11,7 276 16,5 3,8 89 1.008,6
15:38 17,7 14,4 16,4 81,0 13,1 252 - 3,8 81 1.008,6
15:37 17,6 14,4 16,3 81,0 12,9 268 - 3,8 89 1.008,7
15:36 17,6 14,2 16,2 80,2 13,0 269 - 3,8 111 1.008,6
15:35 17,6 14,3 16,2 81,0 12,4 252 - 3,8 136 1.008,6
15:34 17,5 14,2 16,2 81,0 12,2 230 - 3,8 159 1.008,7
15:33 17,5 14,2 16,2 81,0 11,7 267 - 3,8 180 1.008,7
15:32 17,5 14,1 16,1 80,3 12,2 271 - 3,8 210 1.008,7
15:31 17,7 14,4 16,4 80,9 12,5 242 - 3,8 239 1.008,7
15:30 17,8 14,6 16,5 81,0 13,0 260 - 3,8 276 1.008,7
15:29 18,0 14,7 16,7 80,7 13,5 263 - 3,8 295 1.008,6
15:28 18,1 14,6 16,6 79,6 14,3 259 - 3,8 331 1.008,4
15:27 18,2 14,5 16,6 79,0 13,2 263 - 3,8 299 1.008,5
15:26 18,2 14,5 16,6 79,0 12,0 217 - 3,8 280 1.008,6
15:25 18,1 14,2 16,4 78,1 10,9 226 - 3,8 213 1.008,7
15:24 18,1 14,2 16,4 78,2 10,7 265 - 3,8 173 1.008,7
15:23 18,1 14,4 16,5 79,0 10,7 237 - 3,8 162 1.008,7
15:22 18,1 14,5 16,6 79,5 11,0 248 - 3,8 204 1.008,6
15:21 18,2 14,8 16,8 80,6 10,8 253 - 3,8 217 1.008,6
15:20 18,1 14,7 16,7 80,3 10,4 237 - 3,8 266 1.008,7
15:19 18,1 14,7 16,7 80,1 10,1 263 - 3,8 352 1.008,7
15:18 18,1 14,8 16,8 80,8 10,1 246 - 3,8 444 1.008,6
15:17 18,0 14,6 16,6 80,4 10,2 243 - 3,8 491 1.008,6
15:16 17,9 14,5 16,5 80,5 10,3 237 - 3,8 405 1.008,6
15:15 17,8 14,5 16,5 80,7 10,2 264 - 3,8 388 1.008,6
15:14 17,8 14,5 16,5 81,0 8,9 275 - 3,8 375 1.008,7
15:13 17,7 14,4 16,4 81,0 8,2 206 - 3,8 336 1.008,7
15:12 17,7 14,3 16,3 80,8 8,9 255 - 3,8 333 1.008,6
15:11 17,6 14,2 16,2 80,0 9,8 241 - 3,8 320 1.008,5
15:10 17,6 14,2 16,2 80,0 10,6 237 - 3,8 301 1.008,4
15:09 17,6 14,2 16,2 80,0 10,9 234 - 3,8 264 1.008,5
15:08 17,7 14,3 16,3 80,0 11,1 244 - 3,8 253 1.008,5
15:07 17,8 14,2 16,2 79,2 11,2 247 - 3,8 226 1.008,4
15:06 17,9 14,4 16,4 80,0 11,6 253 - 3,8 215 1.008,3
15:05 18,0 14,5 16,5 80,0 11,6 242 - 3,8 215 1.008,4
15:04 18,0 14,4 16,4 79,5 11,4 250 - 3,8 225 1.008,4
15:03 17,9 14,4 16,5 79,7 11,5 249 - 3,8 347 1.008,3
15:02 17,9 14,3 16,4 79,2 11,9 247 - 3,8 341 1.008,2
15:01 17,9 14,2 16,3 79,0 10,7 249 13,9 3,8 303 1.008,2
15:00 17,9 14,2 16,3 79,0 10,9 184 14,3 3,8 272 1.008,2
 
14:59 17,9 14,2 16,3 79,0 11,2 237 14,3 3,8 260 1.008,2
14:58 17,8 14,2 16,3 79,0 12,3 250 - 3,8 278 1.008,2
14:57 17,9 14,2 16,3 79,0 12,2 257 - 3,8 266 1.008,2
14:56 17,9 14,2 16,3 79,0 12,2 249 - 3,8 259 1.008,2
14:55 17,9 14,2 16,3 79,0 11,6 247 - 3,8 258 1.008,1
14:54 17,9 14,2 16,3 79,0 11,2 215 - 3,8 261 1.008,1
14:53 17,9 14,2 16,3 79,0 10,8 219 - 3,8 290 1.008,2
14:52 17,9 14,1 16,2 78,4 11,1 249 - 3,8 324 1.008,1
14:51 17,8 14,1 16,2 78,8 11,4 226 - 3,8 426 1.008,1
14:50 17,8 14,2 16,2 79,0 11,7 247 - 3,8 547 1.008,1
14:49 17,8 14,4 16,4 80,1 11,9 247 - 3,8 547 1.008,1
14:48 17,8 14,5 16,5 81,0 11,9 234 - 3,8 573 1.008,1
14:47 17,7 14,5 16,4 81,0 12,0 264 16,1 3,8 648 1.008,1
14:46 17,7 14,5 16,4 81,6 12,4 245 - 3,8 521 1.008,0
14:45 17,6 14,5 16,4 82,0 12,3 255 - 3,8 521 1.008,1
14:44 17,5 14,4 16,3 82,0 11,8 258 - 3,8 551 1.008,1
14:43 17,4 14,4 16,3 82,2 11,6 222 15,2 3,8 634 1.008,1
14:42 17,3 14,4 16,3 82,7 10,9 238 - 3,8 691 1.008,1
14:41 17,2 14,2 16,1 82,0 10,3 263 - 3,8 736 1.008,2
14:40 17,2 14,0 15,9 81,4 10,5 258 - 3,8 775 1.008,1
14:39 17,3 14,0 16,0 81,0 11,6 252 - 3,8 315 1.008,0
14:38 17,4 14,3 16,2 81,9 11,9 240 15,2 3,8 315 1.007,9
14:37 17,6 14,3 16,3 81,0 12,9 197 - 3,8 266 1.007,9
14:36 17,8 14,5 16,4 81,0 12,5 240 17,4 3,8 186 1.007,9
14:35 17,8 14,5 16,5 81,0 13,2 264 17,0 3,8 144 1.007,9
14:34 17,8 14,5 16,5 81,0 13,0 277 - 3,8 120 1.007,9
14:33 17,8 14,5 16,5 81,0 12,9 259 - 3,8 107 1.007,9
14:32 17,8 14,6 16,5 81,0 12,9 265 - 3,8 100 1.007,9
14:31 17,8 14,5 16,5 80,8 13,0 255 - 3,8 96 1.007,8
14:30 17,8 14,4 16,4 80,4 12,8 252 - 3,8 99 1.007,9
14:29 17,9 14,5 16,5 80,3 12,3 244 - 3,8 115 1.007,9
14:28 18,0 14,6 16,6 80,0 12,0 268 - 3,8 527 1.007,9
14:27 18,0 14,7 16,7 80,8 11,5 264 - 3,8 548 1.007,9
14:26 18,0 14,7 16,7 81,1 10,4 249 - 3,8 411 1.008,0
14:25 17,9 14,8 16,7 81,8 9,4 278 - 3,8 243 1.008,0
14:24 17,8 14,6 16,5 81,0 9,2 253 - 3,8 243 1.007,9
14:23 17,8 14,5 16,5 81,0 9,7 236 - 3,8 243 1.007,9
14:22 17,8 14,5 16,5 81,0 9,9 215 - 3,8 243 1.007,9
14:21 17,8 14,7 16,6 81,9 9,1 232 - 3,8 241 1.007,9
14:20 17,8 14,7 16,7 82,0 8,9 263 - 3,8 321 1.007,9
14:19 17,8 14,6 16,6 81,8 8,9 238 - 3,8 424 1.007,9
14:18 17,7 14,5 16,5 81,4 9,3 233 - 3,8 435 1.007,9
14:17 17,7 14,6 16,5 82,0 9,4 234 - 3,8 517 1.007,8
14:16 17,7 14,4 16,4 81,3 9,9 253 - 3,8 491 1.007,8
14:15 17,7 14,6 16,5 82,0 10,2 239 - 3,8 204 1.007,8
14:14 17,7 14,6 16,5 82,0 9,7 231 - 3,8 254 1.007,8
14:13 17,7 14,6 16,5 82,0 9,5 191 - 3,8 241 1.007,8
14:12 17,7 14,6 16,5 82,0 9,5 230 - 3,8 248 1.007,8
14:11 17,6 14,5 16,5 82,0 10,3 238 - 3,8 194 1.007,8
14:10 17,6 14,3 16,3 81,1 10,9 234 - 3,8 214 1.007,7
14:09 17,6 14,3 16,3 81,0 11,7 264 15,2 3,8 193 1.007,6
14:08 17,6 14,5 16,4 82,0 11,8 261 - 3,8 173 1.007,6
14:07 17,6 14,5 16,4 82,0 11,3 236 - 3,8 163 1.007,7
14:06 17,6 14,6 16,5 82,5 9,5 245 13,4 3,8 161 1.007,7
14:05 17,6 14,7 16,6 83,0 8,9 172 13,4 3,8 186 1.007,7
14:04 17,7 14,6 16,5 82,3 8,8 236 12,1 3,8 200 1.007,6
14:03 17,7 14,8 16,7 83,0 10,5 257 - 3,8 190 1.007,6
14:02 17,8 15,1 16,9 84,2 10,4 229 - 3,8 492 1.007,6
14:01 17,7 15,1 16,9 84,7 10,0 234 - 3,8 744 1.007,7
14:00 17,7 14,9 16,8 84,0 9,5 228 - 3,8 319 1.007,7
 
13:59 17,7 15,0 16,9 84,6 9,9 207 - 3,8 244 1.007,6
13:58 17,6 14,9 16,8 84,3 10,6 226 - 3,8 796 1.007,6
13:57 17,6 15,0 16,8 84,9 10,7 234 - 3,8 542 1.007,6
13:56 17,5 15,0 16,8 85,0 10,5 256 - 3,8 162 1.007,6
13:55 17,5 15,0 16,8 85,4 9,9 259 - 3,8 530 1.007,7
13:54 17,4 15,1 16,8 86,0 9,7 244 - 3,8 687 1.007,7
13:53 17,4 14,9 16,6 85,4 10,3 236 - 3,8 702 1.007,6
13:52 17,3 14,8 16,6 85,0 11,5 246 - 3,8 752 1.007,5
13:51 17,4 15,0 16,7 86,1 11,6 228 - 3,8 752 1.007,6
13:50 17,4 15,3 17,0 87,3 10,4 230 - 3,8 720 1.007,7
13:49 17,3 15,3 17,0 88,0 8,6 215 - 3,8 653 1.007,7
13:48 17,3 15,3 16,9 88,0 7,4 236 - 3,8 641 1.007,7
13:47 17,2 15,2 16,8 88,0 7,0 197 - 3,8 627 1.007,7
13:46 17,1 15,3 16,9 88,8 6,5 225 - 3,8 612 1.007,7
13:45 17,0 15,2 16,8 89,0 6,8 258 - 3,8 607 1.007,7
13:44 16,9 15,1 16,7 89,0 7,3 230 - 3,8 604 1.007,7
13:43 16,8 15,0 16,5 89,0 7,8 244 - 3,8 600 1.007,7
13:42 16,7 14,9 16,5 89,0 7,6 244 - 3,8 598 1.007,8
13:41 16,6 14,8 16,3 89,0 6,6 247 - 3,8 598 1.007,8
13:40 16,5 14,6 16,2 89,0 5,9 252 - 3,8 603 1.007,8
13:39 16,4 14,4 16,0 88,1 5,8 274 - 3,8 411 1.007,8
13:38 16,3 14,3 15,9 88,0 5,9 234 - 3,8 165 1.007,9
13:37 16,3 14,3 15,9 88,0 5,5 209 - 3,8 165 1.007,9
13:36 16,3 14,3 15,9 88,0 5,5 284 - 3,8 165 1.007,8
13:35 16,3 14,3 15,9 88,0 6,9 206 - 3,8 166 1.007,8
13:34 16,3 14,3 15,9 88,0 9,4 207 - 3,8 173 1.007,7
13:33 16,3 14,3 15,9 88,0 10,1 229 - 3,8 172 1.007,7
13:32 16,2 14,2 15,8 88,0 10,1 213 - 3,8 165 1.007,7
13:31 16,2 14,1 15,7 87,6 10,5 255 - 3,6 162 1.007,7
13:30 16,2 14,0 15,6 87,0 10,7 243 - 3,6 145 1.007,7
13:29 16,3 14,1 15,7 87,1 11,0 211 - 3,6 124 1.007,7
13:28 16,4 14,4 16,0 88,0 11,2 247 - 3,6 115 1.007,7
13:27 16,4 14,4 16,0 87,9 11,8 251 - 3,6 127 1.007,7
13:26 16,4 14,3 15,9 87,0 12,2 237 15,2 3,6 143 1.007,7
13:25 16,5 14,3 16,0 87,0 12,4 251 - 3,6 140 1.007,6
13:24 16,6 14,4 16,1 87,0 11,5 276 14,8 3,6 127 1.007,7
13:23 16,6 14,4 16,1 87,0 10,1 213 16,5 3,6 115 1.008,1
13:22 16,6 14,4 16,0 87,0 9,9 213 13,4 3,6 109 1.008,0
13:21 16,6 14,4 16,0 87,0 9,1 251 13,0 3,6 135 1.007,8
13:20 16,6 14,4 16,0 87,0 8,9 219 - 3,6 195 1.007,8
13:19 16,6 14,5 16,1 87,5 8,3 227 - 3,6 259 1.007,7
13:18 16,6 14,7 16,2 88,6 7,9 184 11,6 3,6 345 1.007,8
13:17 16,5 14,7 16,2 89,0 7,4 230 - 3,6 731 1.007,8
13:16 16,4 14,6 16,1 89,0 6,5 220 11,2 3,6 731 1.007,8
13:15 16,3 14,5 16,0 89,0 5,8 184 - 3,6 731 1.007,8
13:14 16,2 14,4 15,9 89,0 6,1 196 - 3,6 715 1.007,7
13:13 16,1 14,3 15,8 89,0 5,7 195 9,4 3,6 704 1.007,7
13:12 16,0 14,1 15,7 89,0 5,5 146 - 3,6 692 1.007,7
13:11 15,9 14,0 15,6 89,0 5,5 208 - 3,6 608 1.007,7
13:10 15,8 14,0 15,5 89,0 6,3 205 - 3,6 473 1.007,7
13:09 15,7 13,9 15,4 89,0 5,8 189 9,8 3,6 271 1.007,7
13:08 15,6 13,8 15,3 89,0 4,9 204 - 3,6 372 1.007,7
13:07 15,5 13,7 15,2 89,0 5,1 210 - 3,6 415 1.007,7
13:06 15,5 13,6 15,1 89,0 5,9 230 9,8 3,6 238 1.007,7
13:05 15,4 13,6 15,1 89,0 5,9 228 - 3,6 229 1.007,7
13:04 15,4 13,5 15,0 89,0 4,9 217 - 3,6 229 1.007,7
13:03 15,3 13,5 15,0 89,0 4,9 201 - 3,6 203 1.007,7
13:02 15,3 13,5 14,9 89,0 5,1 206 - 3,6 176 1.007,7
13:01 15,2 13,4 14,9 89,0 4,8 203 - 3,6 137 1.007,6
13:00 15,2 13,4 14,9 89,0 4,1 211 - 3,6 107 1.007,6
 
12:59 15,2 13,3 14,8 88,2 3,9 200 - 3,6 107 1.007,6
12:58 15,2 13,2 14,8 88,0 4,2 217 - 3,6 108 1.007,5
12:57 15,2 13,2 14,7 88,0 4,6 225 - 3,6 110 1.007,5
12:56 15,2 13,2 14,7 88,0 4,4 236 - 3,6 108 1.007,5
12:55 15,2 13,2 14,7 88,0 6,0 176 - 3,6 96 1.007,6
12:54 15,1 13,1 14,7 88,0 5,1 179 - 3,6 81 1.007,6
12:53 15,1 13,1 14,7 88,0 5,5 217 - 3,6 73 1.007,6
12:52 15,1 13,1 14,6 88,0 5,2 236 - 3,6 73 1.007,7
12:51 15,1 13,1 14,6 88,0 6,0 234 9,4 3,6 76 1.007,7
12:50 15,1 13,1 14,6 88,0 7,5 221 - 3,6 78 1.007,7
12:49 15,1 13,1 14,6 88,0 6,1 216 - 3,6 79 1.007,7
12:48 15,1 13,1 14,6 88,0 6,7 207 10,7 3,6 79 1.007,7
12:47 15,0 13,1 14,6 88,0 4,9 259 - 3,6 78 1.007,7
12:46 15,1 13,1 14,6 88,0 5,6 195 - 3,6 76 1.007,7
12:45 15,1 13,1 14,6 88,0 5,4 198 - 3,6 79 1.007,6
12:44 15,1 13,1 14,6 88,0 6,0 190 10,3 3,6 83 1.007,6
12:43 15,1 13,0 14,6 87,4 5,3 198 - 3,6 79 1.007,6